NEHALEM--NR VERNONIA (VENO3)

Observed    Forecast/Trend Issued: 2024-02-25 15:03 PST
Date/Time (PST)StageDischarge    Date/Time (PST)StageDischarge
2024-02-25 23:055.24320    2024-02-26 00:005.16298
2024-02-25 23:005.24320    2024-02-26 01:005.18303
2024-02-25 22:555.25322    2024-02-26 02:005.20309
2024-02-25 22:505.24320    2024-02-26 03:005.21311
2024-02-25 22:455.24320    2024-02-26 04:005.23317
2024-02-25 22:405.25322    2024-02-26 05:005.25322
2024-02-25 22:355.25322    2024-02-26 06:005.27328
2024-02-25 22:305.25322    2024-02-26 07:005.28331
2024-02-25 22:255.25322    2024-02-26 08:005.29334
2024-02-25 22:205.25322    2024-02-26 09:005.31339
2024-02-25 22:155.25322    2024-02-26 10:005.31339
2024-02-25 22:105.23317    2024-02-26 11:005.32342
2024-02-25 22:055.23317    2024-02-26 12:005.32342
2024-02-25 22:005.23317    2024-02-26 13:005.32342
2024-02-25 21:555.23317    2024-02-26 14:005.32342
2024-02-25 21:505.24320    2024-02-26 15:005.31339
2024-02-25 21:455.23317    2024-02-26 16:005.31339
2024-02-25 21:405.23317    2024-02-26 17:005.30336
2024-02-25 21:355.22314    2024-02-26 18:005.30336
2024-02-25 21:305.23317    2024-02-26 19:005.29334
2024-02-25 21:255.23317    2024-02-26 20:005.29334
2024-02-25 21:205.22314    2024-02-26 21:005.29334
2024-02-25 21:155.22314    2024-02-26 22:005.30336
2024-02-25 21:105.22314    2024-02-26 23:005.30336
2024-02-25 21:055.23317    2024-02-27 00:005.30336
2024-02-25 21:005.23317    2024-02-27 01:005.30336
2024-02-25 20:555.22314    2024-02-27 02:005.30336
2024-02-25 20:505.22314    2024-02-27 03:005.30336
2024-02-25 20:455.21311    2024-02-27 04:005.30336
2024-02-25 20:405.21311    2024-02-27 05:005.30336
2024-02-25 20:355.21311    2024-02-27 06:005.29334
2024-02-25 20:305.22314    2024-02-27 07:005.29334
2024-02-25 20:255.22314    2024-02-27 08:005.28331
2024-02-25 20:205.22314    2024-02-27 09:005.27328
2024-02-25 20:155.21311    2024-02-27 10:005.26325
2024-02-25 20:105.20309    2024-02-27 11:005.25322
2024-02-25 20:055.20309    2024-02-27 12:005.24320
2024-02-25 20:005.21311    2024-02-27 13:005.23317
2024-02-25 19:555.21311    2024-02-27 14:005.21311
2024-02-25 19:505.21311    2024-02-27 15:005.20309
2024-02-25 19:455.21311    2024-02-27 16:005.19306
2024-02-25 19:405.21311    2024-02-27 17:005.18303
2024-02-25 19:355.20309    2024-02-27 18:005.18303
2024-02-25 19:305.21311    2024-02-27 19:005.17301
2024-02-25 19:255.20309    2024-02-27 20:005.17301
2024-02-25 19:205.20309    2024-02-27 21:005.17301
2024-02-25 19:155.21311    2024-02-27 22:005.17301
2024-02-25 19:105.21311    2024-02-27 23:005.18303
2024-02-25 19:055.20309    2024-02-28 00:005.18303
2024-02-25 19:005.19306    2024-02-28 01:005.19306
2024-02-25 18:555.19306    2024-02-28 02:005.20309
2024-02-25 18:505.20309    2024-02-28 03:005.21311
2024-02-25 18:455.20309    2024-02-28 04:005.23317
2024-02-25 18:405.21311    2024-02-28 05:005.24320
2024-02-25 18:355.21311    2024-02-28 06:005.26325
2024-02-25 18:305.20309    2024-02-28 07:005.29334
2024-02-25 18:255.20309    2024-02-28 08:005.31339
2024-02-25 18:205.20309    2024-02-28 09:005.34348
2024-02-25 18:155.20309    2024-02-28 10:005.37357
2024-02-25 18:105.20309    2024-02-28 11:005.41368
2024-02-25 18:055.20309    2024-02-28 12:005.44377
2024-02-25 18:005.19306    2024-02-28 13:005.49393
2024-02-25 17:555.21311    2024-02-28 14:005.53405
2024-02-25 17:505.19306    2024-02-28 15:005.58421
2024-02-25 17:455.20309    2024-02-28 16:005.62434
2024-02-25 17:405.20309    2024-02-28 17:005.67450
2024-02-25 17:355.19306    2024-02-28 18:005.72467
2024-02-25 17:305.19306    2024-02-28 19:005.77484
2024-02-25 17:255.20309    2024-02-28 20:005.82501
2024-02-25 17:205.19306    2024-02-28 21:005.87519
2024-02-25 17:155.19306    2024-02-28 22:005.91534
2024-02-25 17:105.19306    2024-02-28 23:005.96553
2024-02-25 17:055.18303    2024-02-29 00:006.01572
2024-02-25 17:005.19306    2024-02-29 01:006.07591
2024-02-25 16:555.20309    2024-02-29 02:006.13611
2024-02-25 16:505.19306    2024-02-29 03:006.19631
2024-02-25 16:455.18303    2024-02-29 04:006.25651
2024-02-25 16:405.20309    2024-02-29 05:006.30668
2024-02-25 16:355.19306    2024-02-29 06:006.35686
2024-02-25 16:305.19306    2024-02-29 07:006.40704
2024-02-25 16:255.19306    2024-02-29 08:006.44718
2024-02-25 16:205.19306    2024-02-29 09:006.48733
2024-02-25 16:155.20309    2024-02-29 10:006.51744
2024-02-25 16:105.20309    2024-02-29 11:006.54756
2024-02-25 16:055.20309    2024-02-29 12:006.57768
2024-02-25 16:005.19306    2024-02-29 13:006.59776
2024-02-25 15:555.20309    2024-02-29 14:006.61785
2024-02-25 15:505.20309    2024-02-29 15:006.62789
2024-02-25 15:455.20309    2024-02-29 16:006.63793
2024-02-25 15:405.19306    2024-02-29 17:006.64797
2024-02-25 15:355.19306    2024-02-29 18:006.64797
2024-02-25 15:305.19306    2024-02-29 19:006.64797
2024-02-25 15:255.19306    2024-02-29 20:006.63793
2024-02-25 15:205.19306    2024-02-29 21:006.63793
2024-02-25 15:155.19306    2024-02-29 22:006.62789
2024-02-25 15:105.20309    2024-02-29 23:006.61785
2024-02-25 15:055.19306    2024-03-01 00:006.59776
2024-02-25 15:005.20309    2024-03-01 01:006.58772
2024-02-25 14:555.19306    2024-03-01 02:006.56764
2024-02-25 14:505.20309    2024-03-01 03:006.55760
2024-02-25 14:455.20309    2024-03-01 04:006.53752
2024-02-25 14:405.20309    2024-03-01 05:006.51744
2024-02-25 14:355.19306    2024-03-01 06:006.49736
2024-02-25 14:305.20309    2024-03-01 07:006.46725
2024-02-25 14:255.19306    2024-03-01 08:006.44718
2024-02-25 14:205.20309    2024-03-01 09:006.41707
2024-02-25 14:155.19306    2024-03-01 10:006.39700
2024-02-25 14:105.19306    2024-03-01 11:006.36690
2024-02-25 14:055.20309    2024-03-01 12:006.33679
2024-02-25 14:005.20309    2024-03-01 13:006.31672
2024-02-25 13:555.20309    2024-03-01 14:006.28662
2024-02-25 13:505.20309    2024-03-01 15:006.26655
2024-02-25 13:455.19306    2024-03-01 16:006.23644
2024-02-25 13:405.20309    2024-03-01 17:006.21638
2024-02-25 13:355.20309    2024-03-01 18:006.18628
2024-02-25 13:305.19306    2024-03-01 19:006.17624
2024-02-25 13:255.18303    2024-03-01 20:006.15618
2024-02-25 13:205.21311    2024-03-01 21:006.13611
2024-02-25 13:155.20309    2024-03-01 22:006.11604
2024-02-25 13:105.20309    2024-03-01 23:006.09598
2024-02-25 13:055.19306    2024-03-02 00:006.08595
2024-02-25 13:005.20309    2024-03-02 01:006.06588
2024-02-25 12:555.20309    2024-03-02 02:006.05585
2024-02-25 12:505.19306    2024-03-02 03:006.03578
2024-02-25 12:455.19306    2024-03-02 04:006.01572
2024-02-25 12:405.20309    2024-03-02 05:006.00569
2024-02-25 12:355.20309    2024-03-02 06:005.98561
2024-02-25 12:305.20309    2024-03-02 07:005.97557
2024-02-25 12:255.20309    2024-03-02 08:005.95549
2024-02-25 12:205.19306    2024-03-02 09:005.94545
2024-02-25 12:155.19306    2024-03-02 10:005.92538
2024-02-25 12:105.20309    2024-03-02 11:005.90530
2024-02-25 12:055.20309    2024-03-02 12:005.89526
2024-02-25 12:005.20309    2024-03-02 13:005.87519
2024-02-25 11:555.21311    2024-03-02 14:005.85512
2024-02-25 11:505.19306    2024-03-02 15:005.83505
2024-02-25 11:455.20309    2024-03-02 16:005.82501
2024-02-25 11:405.19306    2024-03-02 17:005.80494
2024-02-25 11:355.20309    2024-03-02 18:005.79491
2024-02-25 11:305.20309    2024-03-02 19:005.77484
2024-02-25 11:255.20309    2024-03-02 20:005.76481
2024-02-25 11:205.21311    2024-03-02 21:005.75477
2024-02-25 11:155.20309    2024-03-02 22:005.74474
2024-02-25 11:105.20309    2024-03-02 23:005.72467
2024-02-25 11:055.20309    2024-03-03 00:005.71464
2024-02-25 11:005.20309    2024-03-03 01:005.70460
2024-02-25 10:555.20309    2024-03-03 02:005.69457
2024-02-25 10:505.20309    2024-03-03 03:005.67450
2024-02-25 10:455.20309    2024-03-03 04:005.66447
2024-02-25 10:405.20309    2024-03-03 05:005.65444
2024-02-25 10:355.21311    2024-03-03 06:005.64440
2024-02-25 10:305.20309    2024-03-03 07:005.62434
2024-02-25 10:255.20309    2024-03-03 08:005.61431
2024-02-25 10:205.19306    2024-03-03 09:005.60427
2024-02-25 10:155.20309    2024-03-03 10:005.59424
2024-02-25 10:105.20309    2024-03-03 11:005.57418
2024-02-25 10:055.20309    2024-03-03 12:005.56414
2024-02-25 10:005.20309    2024-03-03 13:005.55411
2024-02-25 09:555.20309    2024-03-03 14:005.54408
2024-02-25 09:505.20309    2024-03-03 15:005.52402
2024-02-25 09:455.21311    2024-03-03 16:005.51399
2024-02-25 09:405.20309    2024-03-03 17:005.50396
2024-02-25 09:355.21311    2024-03-03 18:005.49393
2024-02-25 09:305.19306    2024-03-03 19:005.47386
2024-02-25 09:255.20309    2024-03-03 20:005.46383
2024-02-25 09:205.21311    2024-03-03 21:005.45380
2024-02-25 09:155.21311    2024-03-03 22:005.44377
2024-02-25 09:105.21311    2024-03-03 23:005.43374
2024-02-25 09:055.20309    2024-03-04 00:005.42371
2024-02-25 09:005.20309    2024-03-04 01:005.41368
2024-02-25 08:555.20309    2024-03-04 02:005.40365
2024-02-25 08:505.21311    2024-03-04 03:005.39362
2024-02-25 08:455.22314    2024-03-04 04:005.38360
2024-02-25 08:405.20309    2024-03-04 05:005.37357
2024-02-25 08:355.21311    2024-03-04 06:005.36354
2024-02-25 08:305.21311    2024-03-04 07:005.35351
2024-02-25 08:255.20309    2024-03-04 08:005.34348
2024-02-25 08:205.20309    2024-03-04 09:005.33345
2024-02-25 08:155.19306    2024-03-04 10:005.32342
2024-02-25 08:105.20309    2024-03-04 11:005.31339
2024-02-25 08:055.21311    2024-03-04 12:005.30336
2024-02-25 08:005.20309    2024-03-04 13:005.29334
2024-02-25 07:555.21311    2024-03-04 14:005.29334
2024-02-25 07:505.20309    2024-03-04 15:005.28331
2024-02-25 07:455.23317    2024-03-04 16:005.27328
2024-02-25 07:405.20309    2024-03-04 17:005.27328
2024-02-25 07:355.20309    2024-03-04 18:005.26325
2024-02-25 07:305.21311    2024-03-04 19:005.25322
2024-02-25 07:255.21311    2024-03-04 20:005.25322
2024-02-25 07:205.21311    2024-03-04 21:005.24320
2024-02-25 07:155.21311    2024-03-04 22:005.23317
2024-02-25 07:105.21311    2024-03-04 23:005.23317
2024-02-25 07:055.21311    2024-03-05 00:005.22314
2024-02-25 07:005.22314    2024-03-05 01:005.22314
2024-02-25 06:555.21311    2024-03-05 02:005.21311
2024-02-25 06:505.20309    2024-03-05 03:005.21311
2024-02-25 06:455.20309    2024-03-05 04:005.20309
2024-02-25 06:405.21311    2024-03-05 05:005.20309
2024-02-25 06:355.20309    2024-03-05 06:005.19306
2024-02-25 06:305.22314    2024-03-05 07:005.19306
2024-02-25 06:255.20309    2024-03-05 08:005.19306
2024-02-25 06:205.21311    2024-03-05 09:005.19306
2024-02-25 06:155.21311    2024-03-05 10:005.18303
2024-02-25 06:105.22314    2024-03-05 11:005.18303
2024-02-25 06:055.20309    2024-03-05 12:005.18303
2024-02-25 06:005.20309    2024-03-05 13:005.18303
2024-02-25 05:555.22314    2024-03-05 14:005.18303
2024-02-25 05:505.22314    2024-03-05 15:005.18303
2024-02-25 05:455.21311    2024-03-05 16:005.18303
2024-02-25 05:405.22314    2024-03-05 17:005.19306
2024-02-25 05:355.21311    2024-03-05 18:005.19306
2024-02-25 05:305.21311    2024-03-05 19:005.19306
2024-02-25 05:255.21311    2024-03-05 20:005.19306
2024-02-25 05:205.21311    2024-03-05 21:005.19306
2024-02-25 05:155.21311    2024-03-05 22:005.19306
2024-02-25 05:105.22314    2024-03-05 23:005.19306
2024-02-25 05:055.22314    2024-03-06 00:005.20309
2024-02-25 05:005.21311    2024-03-06 01:005.20309
2024-02-25 04:555.22314    2024-03-06 02:005.20309
2024-02-25 04:505.22314    2024-03-06 03:005.20309
2024-02-25 04:455.21311    2024-03-06 04:005.20309
2024-02-25 04:405.21311   
2024-02-25 04:355.21311   
2024-02-25 04:305.21311   
2024-02-25 04:255.21311   
2024-02-25 04:205.21311   
2024-02-25 04:155.22314   
2024-02-25 04:105.22314   
2024-02-25 04:055.20309   
2024-02-25 04:005.22314   
2024-02-25 03:555.21311   
2024-02-25 03:505.23317   
2024-02-25 03:455.24320   
2024-02-25 03:405.22314   
2024-02-25 03:355.23317   
2024-02-25 03:305.22314   
2024-02-25 03:255.22314   
2024-02-25 03:205.22314   
2024-02-25 03:155.22314   
2024-02-25 03:105.23317   
2024-02-25 03:055.22314   
2024-02-25 03:005.23317   
2024-02-25 02:555.23317   
2024-02-25 02:505.23317   
2024-02-25 02:455.22314   
2024-02-25 02:405.22314   
2024-02-25 02:355.22314   
2024-02-25 02:305.23317   
2024-02-25 02:255.21311   
2024-02-25 02:205.22314   
2024-02-25 02:155.21311   
2024-02-25 02:105.22314   
2024-02-25 02:055.23317   
2024-02-25 02:005.22314   
2024-02-25 01:555.23317   
2024-02-25 01:505.22314   
2024-02-25 01:455.22314   
2024-02-25 01:405.23317   
2024-02-25 01:355.22314   
2024-02-25 01:305.23317   
2024-02-25 01:255.23317   
2024-02-25 01:205.22314   
2024-02-25 01:155.22314   
2024-02-25 01:105.23317   
2024-02-25 01:055.23317   
2024-02-25 01:005.23317   
2024-02-25 00:555.24320   
2024-02-25 00:505.23317   
2024-02-25 00:455.23317   
2024-02-25 00:405.23317   
2024-02-25 00:355.23317   
2024-02-25 00:305.23317   
2024-02-25 00:255.24320   
2024-02-25 00:205.23317   
2024-02-25 00:155.23317   
2024-02-25 00:105.24320   
2024-02-25 00:055.24320   
2024-02-25 00:005.24320   
2024-02-24 23:555.24320   
2024-02-24 23:505.23317   
2024-02-24 23:455.24320   
2024-02-24 23:405.23317   
2024-02-24 23:355.23317   
2024-02-24 23:305.23317   
2024-02-24 23:255.24320   
2024-02-24 23:205.24320   
2024-02-24 23:155.24320   
2024-02-24 23:105.23317   
2024-02-24 23:055.24320   
2024-02-24 23:005.24320   
2024-02-24 22:555.24320   
2024-02-24 22:505.25322   
2024-02-24 22:455.24320   
2024-02-24 22:405.24320   
2024-02-24 22:355.24320   
2024-02-24 22:305.23317   
2024-02-24 22:255.25322   
2024-02-24 22:205.25322   
2024-02-24 22:155.24320   
2024-02-24 22:105.24320   
2024-02-24 22:055.24320   
2024-02-24 22:005.25322   
2024-02-24 21:555.25322   
2024-02-24 21:505.25322   
2024-02-24 21:455.23317   
2024-02-24 21:405.23317   
2024-02-24 21:355.24320   
2024-02-24 21:305.25322   
2024-02-24 21:255.25322   
2024-02-24 21:205.25322   
2024-02-24 21:155.24320   
2024-02-24 21:105.25322   
2024-02-24 21:055.25322   
2024-02-24 21:005.23317   
2024-02-24 20:555.24320   
2024-02-24 20:505.25322   
2024-02-24 20:455.25322   
2024-02-24 20:405.25322   
2024-02-24 20:355.25322   
2024-02-24 20:305.25322   
2024-02-24 20:255.25322   
2024-02-24 20:205.26325   
2024-02-24 20:155.26325   
2024-02-24 20:105.25322   
2024-02-24 20:055.26325   
2024-02-24 20:005.25322   
2024-02-24 19:555.26325   
2024-02-24 19:505.25322   
2024-02-24 19:455.25322   
2024-02-24 19:405.26325   
2024-02-24 19:355.26325   
2024-02-24 19:305.25322   
2024-02-24 19:255.25322   
2024-02-24 19:205.25322   
2024-02-24 19:155.25322   
2024-02-24 19:105.25322   
2024-02-24 19:055.26325   
2024-02-24 19:005.25322   
2024-02-24 18:555.26325   
2024-02-24 18:505.24320   
2024-02-24 18:455.26325   
2024-02-24 18:405.25322   
2024-02-24 18:355.24320   
2024-02-24 18:305.24320   
2024-02-24 18:255.26325   
2024-02-24 18:205.25322   
2024-02-24 18:155.26325   
2024-02-24 18:105.25322   
2024-02-24 18:055.25322   
2024-02-24 18:005.25322   
2024-02-24 17:555.26325   
2024-02-24 17:505.25322   
2024-02-24 17:455.24320   
2024-02-24 17:405.25322   
2024-02-24 17:355.26325   
2024-02-24 17:305.25322   
2024-02-24 17:255.26325   
2024-02-24 17:205.25322   
2024-02-24 17:155.24320   
2024-02-24 17:105.25322   
2024-02-24 17:055.25322   
2024-02-24 17:005.26325   
2024-02-24 16:555.27328   
2024-02-24 16:505.27328   
2024-02-24 16:455.26325   
2024-02-24 16:405.26325   
2024-02-24 16:355.26325   
2024-02-24 16:305.26325   
2024-02-24 16:255.25322   
2024-02-24 16:205.26325   
2024-02-24 16:155.26325   
2024-02-24 16:105.26325   
2024-02-24 16:055.26325   
2024-02-24 16:005.26325   
2024-02-24 15:555.26325   
2024-02-24 15:505.26325   
2024-02-24 15:455.26325   
2024-02-24 15:405.26325   
2024-02-24 15:355.27328   
2024-02-24 15:305.25322   
2024-02-24 15:255.27328   
2024-02-24 15:205.26325   
2024-02-24 15:155.26325   
2024-02-24 15:105.27328   
2024-02-24 15:055.27328   
2024-02-24 15:005.27328   
2024-02-24 14:555.26325   
2024-02-24 14:505.27328   
2024-02-24 14:455.27328   
2024-02-24 14:405.26325   
2024-02-24 14:355.26325   
2024-02-24 14:305.27328   
2024-02-24 14:255.26325   
2024-02-24 14:205.26325   
2024-02-24 14:155.26325   
2024-02-24 14:105.27328   
2024-02-24 14:055.27328   
2024-02-24 14:005.27328   
2024-02-24 13:555.27328   
2024-02-24 13:505.27328   
2024-02-24 13:455.27328   
2024-02-24 13:405.26325   
2024-02-24 13:355.26325   
2024-02-24 13:305.27328   
2024-02-24 13:255.27328   
2024-02-24 13:205.27328   
2024-02-24 13:155.27328   
2024-02-24 13:105.26325   
2024-02-24 13:055.25322   
2024-02-24 13:005.26325   
2024-02-24 12:555.26325   
2024-02-24 12:505.25322   
2024-02-24 12:455.26325   
2024-02-24 12:405.25322   
2024-02-24 12:355.25322   
2024-02-24 12:305.26325   
2024-02-24 12:255.26325   
2024-02-24 12:205.26325   
2024-02-24 12:155.27328   
2024-02-24 12:105.27328   
2024-02-24 12:055.26325   
2024-02-24 12:005.27328   
2024-02-24 11:555.28331   
2024-02-24 11:505.27328   
2024-02-24 11:455.26325   
2024-02-24 11:405.26325   
2024-02-24 11:355.26325   
2024-02-24 11:305.26325   
2024-02-24 11:255.27328   
2024-02-24 11:205.27328   
2024-02-24 11:155.27328   
2024-02-24 11:105.27328   
2024-02-24 11:055.25322   
2024-02-24 11:005.27328   
2024-02-24 10:555.27328   
2024-02-24 10:505.26325   
2024-02-24 10:455.27328   
2024-02-24 10:405.26325   
2024-02-24 10:355.26325   
2024-02-24 10:305.32342   
2024-02-24 10:255.29334   
2024-02-24 10:205.27328   
2024-02-24 10:155.28331   
2024-02-24 10:105.28331   
2024-02-24 10:055.29334   
2024-02-24 10:005.29334   
2024-02-24 09:555.28331   
2024-02-24 09:505.29334   
2024-02-24 09:455.28331   
2024-02-24 09:405.28331   
2024-02-24 09:355.28331   
2024-02-24 09:305.29334   
2024-02-24 09:255.28331   
2024-02-24 09:205.29334   
2024-02-24 09:155.29334   
2024-02-24 09:105.29334   
2024-02-24 09:055.28331   
2024-02-24 09:005.28331   
2024-02-24 08:555.29334   
2024-02-24 08:505.26325   
2024-02-24 08:455.28331   
2024-02-24 08:405.29334   
2024-02-24 08:355.28331   
2024-02-24 08:305.28331   
2024-02-24 08:255.28331   
2024-02-24 08:205.27328   
2024-02-24 08:155.27328   
2024-02-24 08:105.27328   
2024-02-24 08:055.27328   
2024-02-24 08:005.28331   
2024-02-24 07:555.28331   
2024-02-24 07:505.27328   
2024-02-24 07:455.27328   
2024-02-24 07:405.27328   
2024-02-24 07:355.28331   
2024-02-24 07:305.28331   
2024-02-24 07:255.29334   
2024-02-24 07:205.27328   
2024-02-24 07:155.29334   
2024-02-24 07:105.28331   
2024-02-24 07:055.27328   
2024-02-24 07:005.29334   
2024-02-24 06:555.28331   
2024-02-24 06:505.28331   
2024-02-24 06:455.28331   
2024-02-24 06:405.26325   
2024-02-24 06:355.29334   
2024-02-24 06:305.28331   
2024-02-24 06:255.28331   
2024-02-24 06:205.29334   
2024-02-24 06:155.27328   
2024-02-24 06:105.28331   
2024-02-24 06:055.28331   
2024-02-24 06:005.27328   
2024-02-24 05:555.28331   
2024-02-24 05:505.28331   
2024-02-24 05:455.31339   
2024-02-24 05:405.28331   
2024-02-24 05:355.28331   
2024-02-24 05:305.28331   
2024-02-24 05:255.29334   
2024-02-24 05:205.29334   
2024-02-24 05:155.28331   
2024-02-24 05:105.29334   
2024-02-24 05:055.28331   
2024-02-24 05:005.29334   
2024-02-24 04:555.29334   
2024-02-24 04:505.28331   
2024-02-24 04:455.29334   
2024-02-24 04:405.29334   
2024-02-24 04:355.29334   
2024-02-24 04:305.29334   
2024-02-24 04:255.29334   
2024-02-24 04:205.29334   
2024-02-24 04:155.28331   
2024-02-24 04:105.29334   
2024-02-24 04:055.29334   
2024-02-24 04:005.30336   
2024-02-24 03:555.29334   
2024-02-24 03:505.29334   
2024-02-24 03:455.30336   
2024-02-24 03:405.29334   
2024-02-24 03:355.30336   
2024-02-24 03:305.29334   
2024-02-24 03:255.29334   
2024-02-24 03:205.30336   
2024-02-24 03:155.29334   
2024-02-24 03:105.30336   
2024-02-24 03:055.30336   
2024-02-24 03:005.30336   
2024-02-24 02:555.30336   
2024-02-24 02:505.30336   
2024-02-24 02:455.30336   
2024-02-24 02:405.29334   
2024-02-24 02:355.29334   
2024-02-24 02:305.29334   
2024-02-24 02:255.29334   
2024-02-24 02:205.30336   
2024-02-24 02:155.29334   
2024-02-24 02:105.29334   
2024-02-24 02:055.29334   
2024-02-24 02:005.28331   
2024-02-24 01:555.30336   
2024-02-24 01:505.29334   
2024-02-24 01:455.30336   
2024-02-24 01:405.28331   
2024-02-24 01:355.31339   
2024-02-24 01:305.28331   
2024-02-24 01:255.30336   
2024-02-24 01:205.30336   
2024-02-24 01:155.29334   
2024-02-24 01:105.30336   
2024-02-24 01:055.30336   
2024-02-24 01:005.29334   
2024-02-24 00:555.30336   
2024-02-24 00:505.29334   
2024-02-24 00:455.29334   
2024-02-24 00:405.29334   
2024-02-24 00:355.32342   
2024-02-24 00:305.32342   
2024-02-24 00:255.32342   
2024-02-24 00:205.33345   
2024-02-24 00:155.30336   
2024-02-24 00:105.30336   
2024-02-24 00:055.30336   
2024-02-24 00:005.30336   
2024-02-23 23:555.29334   
2024-02-23 23:505.30336   
2024-02-23 23:455.30336   
2024-02-23 23:405.30336   
2024-02-23 23:355.29334   
2024-02-23 23:305.29334   
2024-02-23 23:255.30336   
2024-02-23 23:205.30336   
2024-02-23 23:155.30336   
2024-02-23 23:105.29334   
2024-02-23 23:055.29334   
2024-02-23 23:005.30336   
2024-02-23 22:555.30336   
2024-02-23 22:505.30336   
2024-02-23 22:455.30336   
2024-02-23 22:405.31339   
2024-02-23 22:355.30336   
2024-02-23 22:305.30336   
2024-02-23 22:255.30336   
2024-02-23 22:205.30336   
2024-02-23 22:155.31339   
2024-02-23 22:105.29334   
2024-02-23 22:055.31339   
2024-02-23 22:005.31339   
2024-02-23 21:555.31339   
2024-02-23 21:505.31339   
2024-02-23 21:455.31339   
2024-02-23 21:405.31339   
2024-02-23 21:355.30336   
2024-02-23 21:305.31339   
2024-02-23 21:255.31339   
2024-02-23 21:205.32342   
2024-02-23 21:155.33345   
2024-02-23 21:105.31339   
2024-02-23 21:055.32342   
2024-02-23 21:005.33345   
2024-02-23 20:555.33345   
2024-02-23 20:505.32342   
2024-02-23 20:455.31339   
2024-02-23 20:405.32342   
2024-02-23 20:355.32342   
2024-02-23 20:305.33345   
2024-02-23 20:255.33345   
2024-02-23 20:205.32342   
2024-02-23 20:155.31339   
2024-02-23 20:105.37357   
2024-02-23 20:055.33345   
2024-02-23 20:005.33345   
2024-02-23 19:555.34348   
2024-02-23 19:505.32342   
2024-02-23 19:455.34348   
2024-02-23 19:405.32342   
2024-02-23 19:355.31339   
2024-02-23 19:305.32342   
2024-02-23 19:255.30336   
2024-02-23 19:205.32342   
2024-02-23 19:155.31339   
2024-02-23 19:105.32342   
2024-02-23 19:055.32342   
2024-02-23 19:005.32342   
2024-02-23 18:555.31339   
2024-02-23 18:505.33345   
2024-02-23 18:455.34348   
2024-02-23 18:405.33345   
2024-02-23 18:355.33345   
2024-02-23 18:305.34348   
2024-02-23 18:255.33345   
2024-02-23 18:205.33345   
2024-02-23 18:155.32342   
2024-02-23 18:105.34348   
2024-02-23 18:055.32342   
2024-02-23 18:005.33345   
2024-02-23 17:555.34348   
2024-02-23 17:505.34348   
2024-02-23 17:455.35351   
2024-02-23 17:405.34348   
2024-02-23 17:355.33345   
2024-02-23 17:305.34348   
2024-02-23 17:255.33345   
2024-02-23 17:205.31339   
2024-02-23 17:155.34348   
2024-02-23 17:105.32342   
2024-02-23 17:055.34348   
2024-02-23 17:005.32342   
2024-02-23 16:555.32342   
2024-02-23 16:505.33345   
2024-02-23 16:455.32342   
2024-02-23 16:405.33345   
2024-02-23 16:355.34348   
2024-02-23 16:305.33345   
2024-02-23 16:255.32342   
2024-02-23 16:205.33345   
2024-02-23 16:155.33345   
2024-02-23 16:105.33345   
2024-02-23 16:055.32342   
2024-02-23 16:005.33345   
2024-02-23 15:555.31339   
2024-02-23 15:505.33345   
2024-02-23 15:455.32342   
2024-02-23 15:405.32342   
2024-02-23 15:355.33345   
2024-02-23 15:305.33345   
2024-02-23 15:255.33345   
2024-02-23 15:205.33345   
2024-02-23 15:155.32342   
2024-02-23 15:105.32342   
2024-02-23 15:055.33345   
2024-02-23 15:005.33345   
2024-02-23 14:555.33345   
2024-02-23 14:505.32342   
2024-02-23 14:455.33345   
2024-02-23 14:405.32342   
2024-02-23 14:355.32342   
2024-02-23 14:305.33345   
2024-02-23 14:255.33345   
2024-02-23 14:205.34348   
2024-02-23 14:155.35351   
2024-02-23 14:105.33345   
2024-02-23 14:055.33345   
2024-02-23 14:005.32342   
2024-02-23 13:555.33345   
2024-02-23 13:505.33345   
2024-02-23 13:455.33345   
2024-02-23 13:405.33345   
2024-02-23 13:355.33345   
2024-02-23 13:305.32342   
2024-02-23 13:255.34348   
2024-02-23 13:205.34348   
2024-02-23 13:155.34348   
2024-02-23 13:105.32342   
2024-02-23 13:055.33345   
2024-02-23 13:005.33345   
2024-02-23 12:555.34348   
2024-02-23 12:505.32342   
2024-02-23 12:455.34348   
2024-02-23 12:405.33345   
2024-02-23 12:355.33345   
2024-02-23 12:305.34348   
2024-02-23 12:255.34348   
2024-02-23 12:205.32342   
2024-02-23 12:155.32342   
2024-02-23 12:105.33345   
2024-02-23 12:055.32342   
2024-02-23 12:005.33345   
2024-02-23 11:555.33345   
2024-02-23 11:505.34348   
2024-02-23 11:455.34348   
2024-02-23 11:405.33345   
2024-02-23 11:355.33345   
2024-02-23 11:305.34348   
2024-02-23 11:255.34348   
2024-02-23 11:205.34348   
2024-02-23 11:155.34348   
2024-02-23 11:105.33345   
2024-02-23 11:055.33345   
2024-02-23 11:005.33345   
2024-02-23 10:555.33345   
2024-02-23 10:505.34348   
2024-02-23 10:455.32342   
2024-02-23 10:405.34348   
2024-02-23 10:355.33345   
2024-02-23 10:305.34348   
2024-02-23 10:255.34348   
2024-02-23 10:205.34348   
2024-02-23 10:155.34348   
2024-02-23 10:105.33345   
2024-02-23 10:055.33345   
2024-02-23 10:005.34348   
2024-02-23 09:555.34348   
2024-02-23 09:505.33345   
2024-02-23 09:455.35351   
2024-02-23 09:405.34348   
2024-02-23 09:355.33345   
2024-02-23 09:305.34348   
2024-02-23 09:255.33345   
2024-02-23 09:205.34348   
2024-02-23 09:155.33345   
2024-02-23 09:105.33345   
2024-02-23 09:055.34348   
2024-02-23 09:005.34348   
2024-02-23 08:555.34348   
2024-02-23 08:505.34348   
2024-02-23 08:455.33345   
2024-02-23 08:405.34348   
2024-02-23 08:355.34348   
2024-02-23 08:305.34348   
2024-02-23 08:255.34348   
2024-02-23 08:205.34348   
2024-02-23 08:155.34348   
2024-02-23 08:105.33345   
2024-02-23 08:055.35351   
2024-02-23 08:005.34348   
2024-02-23 07:555.35351   
2024-02-23 07:505.34348   
2024-02-23 07:455.34348   
2024-02-23 07:405.34348   
2024-02-23 07:355.34348   
2024-02-23 07:305.34348   
2024-02-23 07:255.33345   
2024-02-23 07:205.34348   
2024-02-23 07:155.34348   
2024-02-23 07:105.34348   
2024-02-23 07:055.33345   
2024-02-23 07:005.35351   
2024-02-23 06:555.33345   
2024-02-23 06:505.35351   
2024-02-23 06:455.35351   
2024-02-23 06:405.35351   
2024-02-23 06:355.33345   
2024-02-23 06:305.34348   
2024-02-23 06:255.35351   
2024-02-23 06:205.34348   
2024-02-23 06:155.35351   
2024-02-23 06:105.34348   
2024-02-23 06:055.34348   
2024-02-23 06:005.35351   
2024-02-23 05:555.35351   
2024-02-23 05:505.35351   
2024-02-23 05:455.34348   
2024-02-23 05:405.36354   
2024-02-23 05:355.36354   
2024-02-23 05:305.35351   
2024-02-23 05:255.36354   
2024-02-23 05:205.35351   
2024-02-23 05:155.35351   
2024-02-23 05:105.35351   
2024-02-23 05:055.35351   
2024-02-23 05:005.35351   
2024-02-23 04:555.35351   
2024-02-23 04:505.35351   
2024-02-23 04:455.35351   
2024-02-23 04:405.34348   
2024-02-23 04:355.34348   
2024-02-23 04:305.34348   
2024-02-23 04:255.35351   
2024-02-23 04:205.34348   
2024-02-23 04:155.34348   
2024-02-23 04:105.35351   
2024-02-23 04:055.37357   
2024-02-23 04:005.35351   
2024-02-23 03:555.35351   
2024-02-23 03:505.35351   
2024-02-23 03:455.35351   
2024-02-23 03:405.35351   
2024-02-23 03:355.35351   
2024-02-23 03:305.35351   
2024-02-23 03:255.35351   
2024-02-23 03:205.35351   
2024-02-23 03:155.35351   
2024-02-23 03:105.36354   
2024-02-23 03:055.35351   
2024-02-23 03:005.35351   
2024-02-23 02:555.36354   
2024-02-23 02:505.35351   
2024-02-23 02:455.36354   
2024-02-23 02:405.35351   
2024-02-23 02:355.35351   
2024-02-23 02:305.35351   
2024-02-23 02:255.34348   
2024-02-23 02:205.36354   
2024-02-23 02:155.35351   
2024-02-23 02:105.35351   
2024-02-23 02:055.34348   
2024-02-23 02:005.36354   
2024-02-23 01:555.36354   
2024-02-23 01:505.37357   
2024-02-23 01:455.35351   
2024-02-23 01:405.36354   
2024-02-23 01:355.35351   
2024-02-23 01:305.36354   
2024-02-23 01:255.37357   
2024-02-23 01:205.36354   
2024-02-23 01:155.35351   
2024-02-23 01:105.36354   
2024-02-23 01:055.36354   
2024-02-23 01:005.35351   
2024-02-23 00:555.35351   
2024-02-23 00:505.37357   
2024-02-23 00:455.36354   
2024-02-23 00:405.36354   
2024-02-23 00:355.35351   
2024-02-23 00:305.35351   
2024-02-23 00:255.36354   
2024-02-23 00:205.35351   
2024-02-23 00:155.36354   
2024-02-23 00:105.38360   
2024-02-23 00:055.37357   
2024-02-23 00:005.35351   
2024-02-22 23:555.37357   
2024-02-22 23:505.36354   
2024-02-22 23:455.36354   
2024-02-22 23:405.36354   
2024-02-22 23:355.36354   
2024-02-22 23:305.35351   
2024-02-22 23:255.36354   
2024-02-22 23:205.36354   
2024-02-22 23:155.36354   
2024-02-22 23:105.36354   
2024-02-22 23:055.36354   
2024-02-22 23:005.36354   
2024-02-22 22:555.36354   
2024-02-22 22:505.36354   
2024-02-22 22:455.35351   
2024-02-22 22:405.35351   
2024-02-22 22:355.35351   
2024-02-22 22:305.37357   
2024-02-22 22:255.35351   
2024-02-22 22:205.36354   
2024-02-22 22:155.35351   
2024-02-22 22:105.35351   
2024-02-22 22:055.36354   
2024-02-22 22:005.35351   
2024-02-22 21:555.35351   
2024-02-22 21:505.36354   
2024-02-22 21:455.36354   
2024-02-22 21:405.36354   
2024-02-22 21:355.36354   
2024-02-22 21:305.36354   
2024-02-22 21:255.37357   
2024-02-22 21:205.36354   
2024-02-22 21:155.36354   
2024-02-22 21:105.37357   
2024-02-22 21:055.37357   
2024-02-22 21:005.37357   
2024-02-22 20:555.37357   
2024-02-22 20:505.36354   
2024-02-22 20:455.36354   
2024-02-22 20:405.37357   
2024-02-22 20:355.37357   
2024-02-22 20:305.37357   
2024-02-22 20:255.36354   
2024-02-22 20:205.37357   
2024-02-22 20:155.37357   
2024-02-22 20:105.37357   
2024-02-22 20:055.37357   
2024-02-22 20:005.36354   
2024-02-22 19:555.37357   
2024-02-22 19:505.37357   
2024-02-22 19:455.35351   
2024-02-22 19:405.36354   
2024-02-22 19:355.36354   
2024-02-22 19:305.36354   
2024-02-22 19:255.37357   
2024-02-22 19:205.37357   
2024-02-22 19:155.35351   
2024-02-22 19:105.36354   
2024-02-22 19:055.37357   
2024-02-22 19:005.37357   
2024-02-22 18:555.36354   
2024-02-22 18:505.36354   
2024-02-22 18:455.37357   
2024-02-22 18:405.38360   
2024-02-22 18:355.37357   
2024-02-22 18:305.37357   
2024-02-22 18:255.37357   
2024-02-22 18:205.38360   
2024-02-22 18:155.38360   
2024-02-22 18:105.37357   
2024-02-22 18:055.36354   
2024-02-22 18:005.38360   
2024-02-22 17:555.37357   
2024-02-22 17:505.37357   
2024-02-22 17:455.38360   
2024-02-22 17:405.38360   
2024-02-22 17:355.37357   
2024-02-22 17:305.36354   
2024-02-22 17:255.36354   
2024-02-22 17:205.36354   
2024-02-22 17:155.38360   
2024-02-22 17:105.38360   
2024-02-22 17:055.38360   
2024-02-22 17:005.37357   
2024-02-22 16:555.37357   
2024-02-22 16:505.37357   
2024-02-22 16:455.37357   
2024-02-22 16:405.37357   
2024-02-22 16:355.38360   
2024-02-22 16:305.37357   
2024-02-22 16:255.37357   
2024-02-22 16:205.38360   
2024-02-22 16:155.36354   
2024-02-22 16:105.38360   
2024-02-22 16:055.37357   
2024-02-22 16:005.37357   
2024-02-22 15:555.37357   
2024-02-22 15:505.37357   
2024-02-22 15:455.37357   
2024-02-22 15:405.38360   
2024-02-22 15:355.38360   
2024-02-22 15:305.37357   
2024-02-22 15:255.37357   
2024-02-22 15:205.37357   
2024-02-22 15:155.37357   
2024-02-22 15:105.37357   
2024-02-22 15:055.38360   
2024-02-22 15:005.37357   
2024-02-22 14:555.39362   
2024-02-22 14:505.38360   
2024-02-22 14:455.37357   
2024-02-22 14:405.38360   
2024-02-22 14:355.38360   
2024-02-22 14:305.38360   
2024-02-22 14:255.37357   
2024-02-22 14:205.36354   
2024-02-22 14:155.40365   
2024-02-22 14:105.38360   
2024-02-22 14:055.38360   
2024-02-22 14:005.39362   
2024-02-22 13:555.39362   
2024-02-22 13:505.38360   
2024-02-22 13:455.38360   
2024-02-22 13:405.38360   
2024-02-22 13:355.38360   
2024-02-22 13:305.37357   
2024-02-22 13:255.39362   
2024-02-22 13:205.39362   
2024-02-22 13:155.39362   
2024-02-22 13:105.38360   
2024-02-22 13:055.39362   
2024-02-22 13:005.40365   
2024-02-22 12:555.39362   
2024-02-22 12:505.40365   
2024-02-22 12:455.39362   
2024-02-22 12:405.38360   
2024-02-22 12:355.38360   
2024-02-22 12:305.38360   
2024-02-22 12:255.37357   
2024-02-22 12:205.36354   
2024-02-22 12:155.41368   
2024-02-22 12:105.38360   
2024-02-22 12:055.37357   
2024-02-22 12:005.38360   
2024-02-22 11:555.37357   
2024-02-22 11:505.38360   
2024-02-22 11:455.38360   
2024-02-22 11:405.36354   
2024-02-22 11:355.37357   
2024-02-22 11:305.37357   
2024-02-22 11:255.37357   
2024-02-22 11:205.39362   
2024-02-22 11:155.38360   
2024-02-22 11:105.39362   
2024-02-22 11:055.39362   
2024-02-22 11:005.37357   
2024-02-22 10:555.40365   
2024-02-22 10:505.40365   
2024-02-22 10:455.39362   
2024-02-22 10:405.39362   
2024-02-22 10:355.38360   
2024-02-22 10:305.39362   
2024-02-22 10:255.38360   
2024-02-22 10:205.38360   
2024-02-22 10:155.37357   
2024-02-22 10:105.37357   
2024-02-22 10:055.38360   
2024-02-22 10:005.37357   
2024-02-22 09:555.38360   
2024-02-22 09:505.37357   
2024-02-22 09:455.38360   
2024-02-22 09:405.38360   
2024-02-22 09:355.37357   
2024-02-22 09:305.38360   
2024-02-22 09:255.39362   
2024-02-22 09:205.38360   
2024-02-22 09:155.39362   
2024-02-22 09:105.39362   
2024-02-22 09:055.38360   
2024-02-22 09:005.39362   
2024-02-22 08:555.40365   
2024-02-22 08:505.40365   
2024-02-22 08:455.40365   
2024-02-22 08:405.39362   
2024-02-22 08:355.39362   
2024-02-22 08:305.39362   
2024-02-22 08:255.39362   
2024-02-22 08:205.39362   
2024-02-22 08:155.39362   
2024-02-22 08:105.38360   
2024-02-22 08:055.38360   
2024-02-22 08:005.40365   
2024-02-22 07:555.40365   
2024-02-22 07:505.39362   
2024-02-22 07:455.38360   
2024-02-22 07:405.39362   
2024-02-22 07:355.40365   
2024-02-22 07:305.39362   
2024-02-22 07:255.38360   
2024-02-22 07:205.39362   
2024-02-22 07:155.39362   
2024-02-22 07:105.39362   
2024-02-22 07:055.39362   
2024-02-22 07:005.39362   
2024-02-22 06:555.39362   
2024-02-22 06:505.38360   
2024-02-22 06:455.37357   
2024-02-22 06:405.38360   
2024-02-22 06:355.39362   
2024-02-22 06:305.38360   
2024-02-22 06:255.39362   
2024-02-22 06:205.39362   
2024-02-22 06:155.38360   
2024-02-22 06:105.39362   
2024-02-22 06:055.38360   
2024-02-22 06:005.38360   
2024-02-22 05:555.38360   
2024-02-22 05:505.38360   
2024-02-22 05:455.37357   
2024-02-22 05:405.39362   
2024-02-22 05:355.39362   
2024-02-22 05:305.38360   
2024-02-22 05:255.37357   
2024-02-22 05:205.37357   
2024-02-22 05:155.38360   
2024-02-22 05:105.37357   
2024-02-22 05:055.38360   
2024-02-22 05:005.39362   
2024-02-22 04:555.38360   
2024-02-22 04:505.38360   
2024-02-22 04:455.39362   
2024-02-22 04:405.39362   
2024-02-22 04:355.37357   
2024-02-22 04:305.39362   
2024-02-22 04:255.38360   
2024-02-22 04:205.38360   
2024-02-22 04:155.37357   
2024-02-22 04:105.40365   
2024-02-22 04:055.38360   
2024-02-22 04:005.39362   
2024-02-22 03:555.38360   
2024-02-22 03:505.39362   
2024-02-22 03:455.39362   
2024-02-22 03:405.38360   
2024-02-22 03:355.38360   
2024-02-22 03:305.38360   
2024-02-22 03:255.38360   
2024-02-22 03:205.40365   
2024-02-22 03:155.39362   
2024-02-22 03:105.38360   
2024-02-22 03:055.39362   
2024-02-22 03:005.38360   
2024-02-22 02:555.40365   
2024-02-22 02:505.38360   
2024-02-22 02:455.40365   
2024-02-22 02:405.39362   
2024-02-22 02:355.40365   
2024-02-22 02:305.40365   
2024-02-22 02:255.40365   
2024-02-22 02:205.39362   
2024-02-22 02:155.40365   
2024-02-22 02:105.40365   
2024-02-22 02:055.40365   
2024-02-22 02:005.38360   
2024-02-22 01:555.40365   
2024-02-22 01:505.39362   
2024-02-22 01:455.40365   
2024-02-22 01:405.40365   
2024-02-22 01:355.40365   
2024-02-22 01:305.40365   
2024-02-22 01:255.39362   
2024-02-22 01:205.40365   
2024-02-22 01:155.39362   
2024-02-22 01:105.39362   
2024-02-22 01:055.40365   
2024-02-22 01:005.40365   
2024-02-22 00:555.39362   
2024-02-22 00:505.40365   
2024-02-22 00:455.40365   
2024-02-22 00:405.40365   
2024-02-22 00:355.39362   
2024-02-22 00:305.39362   
2024-02-22 00:255.40365   
2024-02-22 00:205.41368   
2024-02-22 00:155.40365   
2024-02-22 00:105.40365   
2024-02-22 00:055.40365   
2024-02-22 00:005.39362   
2024-02-21 23:555.39362   
2024-02-21 23:505.40365   
2024-02-21 23:455.39362   
2024-02-21 23:405.40365   
2024-02-21 23:355.40365   
2024-02-21 23:305.40365   
2024-02-21 23:255.40365   
2024-02-21 23:205.40365   
2024-02-21 23:155.40365   
2024-02-21 23:105.41368   
2024-02-21 23:055.40365   
2024-02-21 23:005.40365   
2024-02-21 22:555.41368   
2024-02-21 22:505.40365   
2024-02-21 22:455.40365   
2024-02-21 22:405.40365   
2024-02-21 22:355.41368   
2024-02-21 22:305.41368   
2024-02-21 22:255.40365   
2024-02-21 22:205.40365   
2024-02-21 22:155.40365   
2024-02-21 22:105.40365   
2024-02-21 22:055.39362   
2024-02-21 22:005.38360   
2024-02-21 21:555.41368   
2024-02-21 21:505.39362   
2024-02-21 21:455.41368   
2024-02-21 21:405.41368   
2024-02-21 21:355.40365   
2024-02-21 21:305.41368   
2024-02-21 21:255.40365   
2024-02-21 21:205.41368   
2024-02-21 21:155.41368   
2024-02-21 21:105.40365   
2024-02-21 21:055.41368   
2024-02-21 21:005.41368   
2024-02-21 20:555.42371   
2024-02-21 20:505.41368   
2024-02-21 20:455.41368   
2024-02-21 20:405.41368   
2024-02-21 20:355.42371   
2024-02-21 20:305.41368   
2024-02-21 20:255.41368   
2024-02-21 20:205.40365   
2024-02-21 20:155.41368   
2024-02-21 20:105.41368   
2024-02-21 20:055.41368   
2024-02-21 20:005.41368   
2024-02-21 19:555.42371   
2024-02-21 19:505.41368   
2024-02-21 19:455.41368   
2024-02-21 19:405.41368   
2024-02-21 19:355.40365   
2024-02-21 19:305.42371   
2024-02-21 19:255.41368   
2024-02-21 19:205.40365   
2024-02-21 19:155.41368   
2024-02-21 19:105.41368   
2024-02-21 19:055.41368   
2024-02-21 19:005.41368   
2024-02-21 18:555.41368   
2024-02-21 18:505.40365   
2024-02-21 18:455.41368   
2024-02-21 18:405.40365   
2024-02-21 18:355.40365   
2024-02-21 18:305.42371   
2024-02-21 18:255.41368   
2024-02-21 18:205.40365   
2024-02-21 18:155.40365   
2024-02-21 18:105.41368   
2024-02-21 18:055.41368   
2024-02-21 18:005.42371   
2024-02-21 17:555.40365   
2024-02-21 17:505.41368   
2024-02-21 17:455.41368   
2024-02-21 17:405.40365   
2024-02-21 17:355.42371   
2024-02-21 17:305.42371   
2024-02-21 17:255.42371   
2024-02-21 17:205.42371   
2024-02-21 17:155.42371   
2024-02-21 17:105.42371   
2024-02-21 17:055.41368   
2024-02-21 17:005.42371   
2024-02-21 16:555.42371   
2024-02-21 16:505.41368   
2024-02-21 16:455.43374   
2024-02-21 16:405.41368   
2024-02-21 16:355.42371   
2024-02-21 16:305.43374   
2024-02-21 16:255.41368   
2024-02-21 16:205.42371   
2024-02-21 16:155.43374   
2024-02-21 16:105.42371   
2024-02-21 16:055.43374   
2024-02-21 16:005.42371   
2024-02-21 15:555.42371   
2024-02-21 15:505.43374   
2024-02-21 15:455.42371   
2024-02-21 15:405.43374   
2024-02-21 15:355.43374   
2024-02-21 15:305.42371   
2024-02-21 15:255.42371   
2024-02-21 15:205.43374   
2024-02-21 15:155.42371   
2024-02-21 15:105.43374   
2024-02-21 15:055.43374   
2024-02-21 15:005.42371   
2024-02-21 14:555.42371   
2024-02-21 14:505.43374   
2024-02-21 14:455.42371   
2024-02-21 14:405.42371   
2024-02-21 14:355.42371   
2024-02-21 14:305.41368   
2024-02-21 14:255.42371   
2024-02-21 14:205.40365   
2024-02-21 14:155.42371   
2024-02-21 14:105.42371   
2024-02-21 14:055.42371   
2024-02-21 14:005.43374   
2024-02-21 13:555.43374   
2024-02-21 13:505.41368   
2024-02-21 13:455.42371   
2024-02-21 13:405.41368   
2024-02-21 13:355.40365   
2024-02-21 13:305.41368   
2024-02-21 13:255.41368   
2024-02-21 13:205.40365   
2024-02-21 13:155.41368   
2024-02-21 13:105.41368   
2024-02-21 13:055.41368   
2024-02-21 13:005.39362   
2024-02-21 12:555.40365   
2024-02-21 12:505.40365   
2024-02-21 12:455.41368   
2024-02-21 12:405.39362   
2024-02-21 12:355.39362   
2024-02-21 12:305.39362   
2024-02-21 12:255.39362   
2024-02-21 12:205.39362   
2024-02-21 12:155.38360   
2024-02-21 12:105.39362   
2024-02-21 12:055.38360   
2024-02-21 12:005.37357   
2024-02-21 11:555.38360   
2024-02-21 11:505.37357   
2024-02-21 11:455.37357   
2024-02-21 11:405.37357   
2024-02-21 11:355.36354   
2024-02-21 11:305.36354   
2024-02-21 11:255.37357   
2024-02-21 11:205.37357   
2024-02-21 11:155.36354   
2024-02-21 11:105.36354   
2024-02-21 11:055.34348   
2024-02-21 11:005.35351   
2024-02-21 10:555.36354   
2024-02-21 10:505.35351   
2024-02-21 10:455.35351   
2024-02-21 10:405.35351   
2024-02-21 10:355.35351   
2024-02-21 10:305.34348   
2024-02-21 10:255.35351   
2024-02-21 10:205.35351   
2024-02-21 10:155.33345   
2024-02-21 10:105.34348   
2024-02-21 10:055.34348   
2024-02-21 10:005.33345   
2024-02-21 09:555.34348   
2024-02-21 09:505.32342   
2024-02-21 09:455.34348   
2024-02-21 09:405.33345   
2024-02-21 09:355.34348   
2024-02-21 09:305.33345   
2024-02-21 09:255.33345   
2024-02-21 09:205.33345   
2024-02-21 09:155.33345   
2024-02-21 09:105.33345   
2024-02-21 09:055.33345   
2024-02-21 09:005.33345   
2024-02-21 08:555.33345   
2024-02-21 08:505.33345   
2024-02-21 08:455.32342   
2024-02-21 08:405.32342   
2024-02-21 08:355.32342   
2024-02-21 08:305.31339   
2024-02-21 08:255.31339   
2024-02-21 08:205.31339   
2024-02-21 08:155.31339   
2024-02-21 08:105.31339   
2024-02-21 08:055.32342   
2024-02-21 08:005.32342   
2024-02-21 07:555.32342   
2024-02-21 07:505.32342   
2024-02-21 07:455.32342   
2024-02-21 07:405.32342   
2024-02-21 07:355.31339   
2024-02-21 07:305.31339   
2024-02-21 07:255.31339   
2024-02-21 07:205.31339   
2024-02-21 07:155.31339   
2024-02-21 07:105.31339   
2024-02-21 07:055.31339   
2024-02-21 07:005.31339   
2024-02-21 06:555.30336   
2024-02-21 06:505.30336   
2024-02-21 06:455.31339   
2024-02-21 06:405.30336   
2024-02-21 06:355.31339   
2024-02-21 06:305.30336   
2024-02-21 06:255.31339   
2024-02-21 06:205.30336   
2024-02-21 06:155.30336   
2024-02-21 06:105.31339   
2024-02-21 06:055.30336   
2024-02-21 06:005.30336   
2024-02-21 05:555.31339   
2024-02-21 05:505.31339   
2024-02-21 05:455.31339   
2024-02-21 05:405.30336   
2024-02-21 05:355.31339   
2024-02-21 05:305.30336   
2024-02-21 05:255.30336   
2024-02-21 05:205.31339   
2024-02-21 05:155.31339   
2024-02-21 05:105.31339   
2024-02-21 05:055.30336   
2024-02-21 05:005.30336   
2024-02-21 04:555.30336   
2024-02-21 04:505.30336   
2024-02-21 04:455.30336   
2024-02-21 04:405.31339   
2024-02-21 04:355.31339   
2024-02-21 04:305.29334   
2024-02-21 04:255.29334   
2024-02-21 04:205.30336   
2024-02-21 04:155.30336   
2024-02-21 04:105.30336   
2024-02-21 04:055.29334   
2024-02-21 04:005.30336   
2024-02-21 03:555.31339   
2024-02-21 03:505.30336   
2024-02-21 03:455.30336   
2024-02-21 03:405.31339   
2024-02-21 03:355.30336   
2024-02-21 03:305.30336   
2024-02-21 03:255.30336   
2024-02-21 03:205.30336   
2024-02-21 03:155.32342   
2024-02-21 03:105.30336   
2024-02-21 03:055.30336   
2024-02-21 03:005.31339   
2024-02-21 02:555.29334   
2024-02-21 02:505.30336   
2024-02-21 02:455.29334   
2024-02-21 02:405.29334   
2024-02-21 02:355.30336   
2024-02-21 02:305.30336   
2024-02-21 02:255.29334   
2024-02-21 02:205.29334   
2024-02-21 02:155.29334   
2024-02-21 02:105.31339   
2024-02-21 02:055.29334   
2024-02-21 02:005.30336   
2024-02-21 01:555.30336   
2024-02-21 01:505.30336   
2024-02-21 01:455.30336   
2024-02-21 01:405.30336   
2024-02-21 01:355.30336   
2024-02-21 01:305.30336   
2024-02-21 01:255.30336   
2024-02-21 01:205.30336   
2024-02-21 01:155.31339   
2024-02-21 01:105.30336   
2024-02-21 01:055.30336   
2024-02-21 01:005.30336   
2024-02-21 00:555.29334   
2024-02-21 00:505.28331   
2024-02-21 00:455.29334   
2024-02-21 00:405.29334   
2024-02-21 00:355.28331   
2024-02-21 00:305.28331   
2024-02-21 00:255.28331   
2024-02-21 00:205.29334   
2024-02-21 00:155.29334   
2024-02-21 00:105.28331   
2024-02-21 00:055.29334   
2024-02-21 00:005.27328   
2024-02-20 23:555.28331   
2024-02-20 23:505.28331   
2024-02-20 23:455.28331   
2024-02-20 23:405.28331   
2024-02-20 23:355.28331   
2024-02-20 23:305.28331   
2024-02-20 23:255.28331   
2024-02-20 23:205.27328   
2024-02-20 23:155.28331   
2024-02-20 23:105.27328   
2024-02-20 23:055.27328   
2024-02-20 23:005.27328   
2024-02-20 22:555.28331   
2024-02-20 22:505.27328   
2024-02-20 22:455.27328   
2024-02-20 22:405.28331   
2024-02-20 22:355.28331   
2024-02-20 22:305.28331   
2024-02-20 22:255.27328   
2024-02-20 22:205.28331   
2024-02-20 22:155.28331   
2024-02-20 22:105.27328   
2024-02-20 22:055.28331   
2024-02-20 22:005.28331   
2024-02-20 21:555.28331   
2024-02-20 21:505.27328   
2024-02-20 21:455.28331   
2024-02-20 21:405.28331   
2024-02-20 21:355.27328   
2024-02-20 21:305.27328   
2024-02-20 21:255.28331   
2024-02-20 21:205.27328   
2024-02-20 21:155.27328   
2024-02-20 21:105.27328   
2024-02-20 21:055.27328   
2024-02-20 21:005.27328   
2024-02-20 20:555.27328   
2024-02-20 20:505.26325   
2024-02-20 20:455.26325   
2024-02-20 20:405.27328   
2024-02-20 20:355.28331   
2024-02-20 20:305.27328   
2024-02-20 20:255.27328   
2024-02-20 20:205.26325   
2024-02-20 20:155.27328   
2024-02-20 20:105.27328   
2024-02-20 20:055.27328   
2024-02-20 20:005.27328   
2024-02-20 19:555.27328   
2024-02-20 19:505.27328   
2024-02-20 19:455.27328   
2024-02-20 19:405.27328   
2024-02-20 19:355.27328   
2024-02-20 19:305.27328   
2024-02-20 19:255.27328   
2024-02-20 19:205.27328   
2024-02-20 19:155.27328   
2024-02-20 19:105.27328   
2024-02-20 19:055.27328   
2024-02-20 19:005.27328   
2024-02-20 18:555.27328   
2024-02-20 18:505.28331   
2024-02-20 18:455.27328   
2024-02-20 18:405.27328   
2024-02-20 18:355.27328   
2024-02-20 18:305.27328   
2024-02-20 18:255.27328   
2024-02-20 18:205.27328   
2024-02-20 18:155.27328   
2024-02-20 18:105.27328   
2024-02-20 18:055.27328   
2024-02-20 18:005.27328   
2024-02-20 17:555.26325   
2024-02-20 17:505.27328   
2024-02-20 17:455.27328   
2024-02-20 17:405.27328   
2024-02-20 17:355.27328   
2024-02-20 17:305.27328   
2024-02-20 17:255.26325   
2024-02-20 17:205.26325   
2024-02-20 17:155.27328   
2024-02-20 17:105.28331   
2024-02-20 17:055.26325   
2024-02-20 17:005.27328   
2024-02-20 16:555.27328   
2024-02-20 16:505.27328   
2024-02-20 16:455.27328   
2024-02-20 16:405.27328   
2024-02-20 16:355.27328   
2024-02-20 16:305.27328   
2024-02-20 16:255.27328   
2024-02-20 16:205.27328   
2024-02-20 16:155.27328   
2024-02-20 16:105.26325   
2024-02-20 16:055.26325   
2024-02-20 16:005.27328   
2024-02-20 15:555.26325   
2024-02-20 15:505.26325   
2024-02-20 15:455.27328   
2024-02-20 15:405.26325   
2024-02-20 15:355.27328   
2024-02-20 15:305.27328   
2024-02-20 15:255.27328   
2024-02-20 15:205.27328   
2024-02-20 15:155.27328   
2024-02-20 15:105.26325   
2024-02-20 15:055.26325   
2024-02-20 15:005.26325   
2024-02-20 14:555.26325   
2024-02-20 14:505.27328   
2024-02-20 14:455.27328   
2024-02-20 14:405.27328   
2024-02-20 14:355.26325   
2024-02-20 14:305.27328   
2024-02-20 14:255.27328   
2024-02-20 14:205.27328   
2024-02-20 14:155.27328   
2024-02-20 14:105.27328   
2024-02-20 14:055.26325   
2024-02-20 14:005.27328   
2024-02-20 13:555.26325   
2024-02-20 13:505.27328   
2024-02-20 13:455.26325   
2024-02-20 13:405.27328   
2024-02-20 13:355.27328   
2024-02-20 13:305.26325   
2024-02-20 13:255.27328   
2024-02-20 13:205.27328   
2024-02-20 13:155.27328   
2024-02-20 13:105.26325   
2024-02-20 13:055.27328   
2024-02-20 13:005.27328   
2024-02-20 12:555.27328   
2024-02-20 12:505.26325   
2024-02-20 12:455.27328   
2024-02-20 12:405.26325   
2024-02-20 12:355.28331   
2024-02-20 12:305.27328   
2024-02-20 12:255.27328   
2024-02-20 12:205.26325   
2024-02-20 12:155.28331   
2024-02-20 12:105.27328   
2024-02-20 12:055.27328   
2024-02-20 12:005.27328   
2024-02-20 11:555.27328   
2024-02-20 11:505.27328   
2024-02-20 11:455.27328   
2024-02-20 11:405.27328   
2024-02-20 11:355.27328   
2024-02-20 11:305.27328   
2024-02-20 11:255.27328   
2024-02-20 11:205.27328   
2024-02-20 11:155.27328   
2024-02-20 11:105.27328   
2024-02-20 11:055.27328   
2024-02-20 11:005.27328   
2024-02-20 10:555.27328   
2024-02-20 10:505.27328   
2024-02-20 10:455.27328   
2024-02-20 10:405.27328   
2024-02-20 10:355.27328   
2024-02-20 10:305.27328   
2024-02-20 10:255.28331   
2024-02-20 10:205.27328   
2024-02-20 10:155.28331   
2024-02-20 10:105.27328   
2024-02-20 10:055.28331   
2024-02-20 10:005.27328   
2024-02-20 09:555.28331   
2024-02-20 09:505.27328   
2024-02-20 09:455.28331   
2024-02-20 09:405.28331   
2024-02-20 09:355.27328   
2024-02-20 09:305.27328   
2024-02-20 09:255.28331   
2024-02-20 09:205.28331   
2024-02-20 09:155.28331   
2024-02-20 09:105.28331   
2024-02-20 09:055.28331   
2024-02-20 09:005.28331   
2024-02-20 08:555.29334   
2024-02-20 08:505.28331   
2024-02-20 08:455.28331   
2024-02-20 08:405.28331   
2024-02-20 08:355.28331   
2024-02-20 08:305.28331   
2024-02-20 08:255.28331   
2024-02-20 08:205.28331   
2024-02-20 08:155.27328   
2024-02-20 08:105.28331   
2024-02-20 08:055.28331   
2024-02-20 08:005.28331   
2024-02-20 07:555.28331   
2024-02-20 07:505.27328   
2024-02-20 07:455.28331   
2024-02-20 07:405.27328   
2024-02-20 07:355.28331   
2024-02-20 07:305.28331   
2024-02-20 07:255.28331   
2024-02-20 07:205.28331   
2024-02-20 07:155.28331   
2024-02-20 07:105.28331   
2024-02-20 07:055.27328   
2024-02-20 07:005.28331   
2024-02-20 06:555.28331   
2024-02-20 06:505.27328   
2024-02-20 06:455.28331   
2024-02-20 06:405.28331   
2024-02-20 06:355.28331   
2024-02-20 06:305.28331   
2024-02-20 06:255.28331   
2024-02-20 06:205.28331   
2024-02-20 06:155.28331   
2024-02-20 06:105.28331   
2024-02-20 06:055.28331   
2024-02-20 06:005.29334   
2024-02-20 05:555.27328   
2024-02-20 05:505.28331   
2024-02-20 05:455.28331   
2024-02-20 05:405.27328   
2024-02-20 05:355.28331   
2024-02-20 05:305.27328   
2024-02-20 05:255.28331   
2024-02-20 05:205.27328   
2024-02-20 05:155.28331   
2024-02-20 05:105.27328   
2024-02-20 05:055.28331   
2024-02-20 05:005.27328   
2024-02-20 04:555.27328   
2024-02-20 04:505.27328   
2024-02-20 04:455.28331   
2024-02-20 04:405.28331   
2024-02-20 04:355.27328   
2024-02-20 04:305.28331   
2024-02-20 04:255.27328   
2024-02-20 04:205.28331   
2024-02-20 04:155.27328   
2024-02-20 04:105.27328   
2024-02-20 04:055.27328   
2024-02-20 04:005.27328   
2024-02-20 03:555.27328   
2024-02-20 03:505.28331   
2024-02-20 03:455.26325   
2024-02-20 03:405.27328   
2024-02-20 03:355.27328   
2024-02-20 03:305.27328   
2024-02-20 03:255.28331   
2024-02-20 03:205.27328   
2024-02-20 03:155.28331   
2024-02-20 03:105.27328   
2024-02-20 03:055.28331   
2024-02-20 03:005.27328   
2024-02-20 02:555.28331   
2024-02-20 02:505.28331   
2024-02-20 02:455.27328   
2024-02-20 02:405.28331   
2024-02-20 02:355.28331   
2024-02-20 02:305.27328   
2024-02-20 02:255.28331   
2024-02-20 02:205.28331   
2024-02-20 02:155.28331   
2024-02-20 02:105.27328   
2024-02-20 02:055.27328   
2024-02-20 02:005.28331   
2024-02-20 01:555.28331   
2024-02-20 01:505.28331   
2024-02-20 01:455.28331   
2024-02-20 01:405.28331   
2024-02-20 01:355.27328   
2024-02-20 01:305.28331   
2024-02-20 01:255.28331   
2024-02-20 01:205.27328   
2024-02-20 01:155.28331   
2024-02-20 01:105.28331   
2024-02-20 01:055.28331   
2024-02-20 01:005.28331   
2024-02-20 00:555.28331   
2024-02-20 00:505.28331   
2024-02-20 00:455.28331   
2024-02-20 00:405.28331   
2024-02-20 00:355.28331   
2024-02-20 00:305.28331   
2024-02-20 00:255.28331   
2024-02-20 00:205.28331   
2024-02-20 00:155.28331   
2024-02-20 00:105.29334   
2024-02-20 00:055.29334   
2024-02-20 00:005.28331   
2024-02-19 23:555.28331   
2024-02-19 23:505.29334   
2024-02-19 23:455.29334   
2024-02-19 23:405.28331   
2024-02-19 23:355.28331   
2024-02-19 23:305.28331   
2024-02-19 23:255.28331   
2024-02-19 23:205.29334   
2024-02-19 23:155.28331   
2024-02-19 23:105.28331   
2024-02-19 23:055.28331   
2024-02-19 23:005.28331   
2024-02-19 22:555.28331   
2024-02-19 22:505.28331   
2024-02-19 22:455.28331   
2024-02-19 22:405.28331   
2024-02-19 22:355.29334   
2024-02-19 22:305.28331   
2024-02-19 22:255.28331   
2024-02-19 22:205.29334   
2024-02-19 22:155.28331   
2024-02-19 22:105.29334   
2024-02-19 22:055.29334   
2024-02-19 22:005.29334   
2024-02-19 21:555.29334   
2024-02-19 21:505.28331   
2024-02-19 21:455.28331   
2024-02-19 21:405.28331   
2024-02-19 21:355.29334   
2024-02-19 21:305.29334   
2024-02-19 21:255.30336   
2024-02-19 21:205.29334   
2024-02-19 21:155.28331   
2024-02-19 21:105.28331   
2024-02-19 21:055.29334   
2024-02-19 21:005.28331   
2024-02-19 20:555.28331   
2024-02-19 20:505.28331   
2024-02-19 20:455.29334   
2024-02-19 20:405.28331   
2024-02-19 20:355.29334   
2024-02-19 20:305.28331   
2024-02-19 20:255.29334   
2024-02-19 20:205.28331   
2024-02-19 20:155.29334   
2024-02-19 20:105.29334   
2024-02-19 20:055.29334   
2024-02-19 20:005.28331   
2024-02-19 19:555.29334   
2024-02-19 19:505.29334   
2024-02-19 19:455.29334   
2024-02-19 19:405.28331   
2024-02-19 19:355.29334   
2024-02-19 19:305.29334   
2024-02-19 19:255.28331   
2024-02-19 19:205.29334   
2024-02-19 19:155.29334   
2024-02-19 19:105.29334   
2024-02-19 19:055.29334   
2024-02-19 19:005.29334   
2024-02-19 18:555.29334   
2024-02-19 18:505.29334   
2024-02-19 18:455.29334   
2024-02-19 18:405.29334   
2024-02-19 18:355.29334   
2024-02-19 18:305.29334   
2024-02-19 18:255.29334   
2024-02-19 18:205.29334   
2024-02-19 18:155.29334   
2024-02-19 18:105.29334   
2024-02-19 18:055.28331   
2024-02-19 18:005.29334   
2024-02-19 17:555.28331   
2024-02-19 17:505.29334   
2024-02-19 17:455.28331   
2024-02-19 17:405.29334   
2024-02-19 17:355.28331   
2024-02-19 17:305.29334   
2024-02-19 17:255.29334   
2024-02-19 17:205.28331   
2024-02-19 17:155.29334   
2024-02-19 17:105.29334   
2024-02-19 17:055.29334   
2024-02-19 17:005.29334   
2024-02-19 16:555.29334   
2024-02-19 16:505.29334   
2024-02-19 16:455.30336   
2024-02-19 16:405.29334   
2024-02-19 16:355.29334   
2024-02-19 16:305.29334   
2024-02-19 16:255.29334   
2024-02-19 16:205.29334   
2024-02-19 16:155.29334   
2024-02-19 16:105.30336   
2024-02-19 16:055.30336   
2024-02-19 16:005.29334   
2024-02-19 15:555.29334   
2024-02-19 15:505.29334   
2024-02-19 15:455.30336   
2024-02-19 15:405.30336   
2024-02-19 15:355.29334   
2024-02-19 15:305.29334   
2024-02-19 15:255.29334   
2024-02-19 15:205.30336   
2024-02-19 15:155.29334   
2024-02-19 15:105.30336   
2024-02-19 15:055.30336   
2024-02-19 15:005.29334   
2024-02-19 14:555.29334   
2024-02-19 14:505.29334   
2024-02-19 14:455.30336   
2024-02-19 14:405.30336   
2024-02-19 14:355.29334   
2024-02-19 14:305.29334   
2024-02-19 14:255.30336   
2024-02-19 14:205.29334   
2024-02-19 14:155.29334   
2024-02-19 14:105.30336   
2024-02-19 14:055.30336   
2024-02-19 14:005.29334   
2024-02-19 13:555.30336   
2024-02-19 13:505.30336   
2024-02-19 13:455.29334   
2024-02-19 13:405.30336   
2024-02-19 13:355.30336   
2024-02-19 13:305.30336   
2024-02-19 13:255.30336   
2024-02-19 13:205.30336   
2024-02-19 13:155.29334   
2024-02-19 13:105.30336   
2024-02-19 13:055.30336   
2024-02-19 13:005.29334   
2024-02-19 12:555.29334   
2024-02-19 12:505.30336   
2024-02-19 12:455.30336   
2024-02-19 12:405.30336   
2024-02-19 12:355.30336   
2024-02-19 12:305.30336   
2024-02-19 12:255.30336   
2024-02-19 12:205.30336   
2024-02-19 12:155.30336   
2024-02-19 12:105.30336   
2024-02-19 12:055.29334   
2024-02-19 12:005.30336   
2024-02-19 11:555.30336   
2024-02-19 11:505.30336   
2024-02-19 11:455.30336   
2024-02-19 11:405.29334   
2024-02-19 11:355.30336   
2024-02-19 11:305.30336   
2024-02-19 11:255.30336   
2024-02-19 11:205.30336   
2024-02-19 11:155.29334   
2024-02-19 11:105.29334   
2024-02-19 11:055.30336   
2024-02-19 11:005.30336   
2024-02-19 10:555.29334   
2024-02-19 10:505.30336   
2024-02-19 10:455.30336   
2024-02-19 10:405.29334   
2024-02-19 10:355.29334   
2024-02-19 10:305.30336   
2024-02-19 10:255.29334   
2024-02-19 10:205.29334   
2024-02-19 10:155.29334   
2024-02-19 10:105.29334   
2024-02-19 10:055.29334   
2024-02-19 10:005.29334   
2024-02-19 09:555.29334   
2024-02-19 09:505.28331   
2024-02-19 09:455.28331   
2024-02-19 09:405.28331   
2024-02-19 09:355.28331   
2024-02-19 09:305.29334   
2024-02-19 09:255.28331   
2024-02-19 09:205.29334   
2024-02-19 09:155.28331   
2024-02-19 09:105.29334   
2024-02-19 09:055.29334   
2024-02-19 09:005.29334   
2024-02-19 08:555.28331   
2024-02-19 08:505.29334   
2024-02-19 08:455.29334   
2024-02-19 08:405.28331   
2024-02-19 08:355.28331   
2024-02-19 08:305.28331   
2024-02-19 08:255.28331   
2024-02-19 08:205.28331   
2024-02-19 08:155.29334   
2024-02-19 08:105.28331   
2024-02-19 08:055.28331   
2024-02-19 08:005.28331   
2024-02-19 07:555.28331   
2024-02-19 07:505.28331   
2024-02-19 07:455.28331   
2024-02-19 07:405.29334   
2024-02-19 07:355.28331   
2024-02-19 07:305.28331   
2024-02-19 07:255.29334   
2024-02-19 07:205.27328   
2024-02-19 07:155.28331   
2024-02-19 07:105.28331   
2024-02-19 07:055.28331   
2024-02-19 07:005.29334   
2024-02-19 06:555.28331   
2024-02-19 06:505.28331   
2024-02-19 06:455.28331   
2024-02-19 06:405.29334   
2024-02-19 06:355.29334   
2024-02-19 06:305.29334   
2024-02-19 06:255.29334   
2024-02-19 06:205.28331   
2024-02-19 06:155.28331   
2024-02-19 06:105.28331   
2024-02-19 06:055.28331   
2024-02-19 06:005.28331   
2024-02-19 05:555.28331   
2024-02-19 05:505.28331   
2024-02-19 05:455.28331   
2024-02-19 05:405.29334   
2024-02-19 05:355.28331   
2024-02-19 05:305.29334   
2024-02-19 05:255.28331   
2024-02-19 05:205.28331   
2024-02-19 05:155.28331   
2024-02-19 05:105.28331   
2024-02-19 05:055.28331   
2024-02-19 05:005.29334   
2024-02-19 04:555.28331   
2024-02-19 04:505.28331   
2024-02-19 04:455.28331   
2024-02-19 04:405.28331   
2024-02-19 04:355.28331   
2024-02-19 04:305.28331   
2024-02-19 04:255.28331   
2024-02-19 04:205.29334   
2024-02-19 04:155.28331   
2024-02-19 04:105.28331   
2024-02-19 04:055.28331   
2024-02-19 04:005.29334   
2024-02-19 03:555.29334   
2024-02-19 03:505.29334   
2024-02-19 03:455.29334   
2024-02-19 03:405.29334   
2024-02-19 03:355.29334   
2024-02-19 03:305.28331   
2024-02-19 03:255.29334   
2024-02-19 03:205.28331   
2024-02-19 03:155.28331   
2024-02-19 03:105.27328   
2024-02-19 03:055.28331   
2024-02-19 03:005.28331   
2024-02-19 02:555.29334   
2024-02-19 02:505.29334   
2024-02-19 02:455.28331   
2024-02-19 02:405.28331   
2024-02-19 02:355.28331   
2024-02-19 02:305.28331   
2024-02-19 02:255.28331   
2024-02-19 02:205.27328   
2024-02-19 02:155.28331   
2024-02-19 02:105.28331   
2024-02-19 02:055.28331   
2024-02-19 02:005.28331   
2024-02-19 01:555.28331   
2024-02-19 01:505.28331   
2024-02-19 01:455.29334   
2024-02-19 01:405.29334   
2024-02-19 01:355.27328   
2024-02-19 01:305.28331   
2024-02-19 01:255.28331   
2024-02-19 01:205.29334   
2024-02-19 01:155.28331   
2024-02-19 01:105.28331   
2024-02-19 01:055.29334   
2024-02-19 01:005.28331   
2024-02-19 00:555.28331   
2024-02-19 00:505.29334   
2024-02-19 00:455.28331   
2024-02-19 00:405.29334   
2024-02-19 00:355.28331   
2024-02-19 00:305.28331   
2024-02-19 00:255.29334   
2024-02-19 00:205.28331   
2024-02-19 00:155.28331   
2024-02-19 00:105.29334   
2024-02-19 00:055.28331   
2024-02-19 00:005.28331   
2024-02-18 23:555.28331   
2024-02-18 23:505.28331   
2024-02-18 23:455.28331   
2024-02-18 23:405.29334   
2024-02-18 23:355.28331   
2024-02-18 23:305.28331   
2024-02-18 23:255.28331   
2024-02-18 23:205.28331   
2024-02-18 23:155.28331   
2024-02-18 23:105.28331   
2024-02-18 23:055.28331   
2024-02-18 23:005.29334   
2024-02-18 22:555.29334   
2024-02-18 22:505.29334   
2024-02-18 22:455.30336   
2024-02-18 22:405.29334   
2024-02-18 22:355.29334   
2024-02-18 22:305.28331   
2024-02-18 22:255.28331   
2024-02-18 22:205.28331   
2024-02-18 22:155.29334   
2024-02-18 22:105.29334   
2024-02-18 22:055.28331   
2024-02-18 22:005.29334   
2024-02-18 21:555.28331   
2024-02-18 21:505.29334   
2024-02-18 21:455.29334   
2024-02-18 21:405.29334   
2024-02-18 21:355.28331   
2024-02-18 21:305.29334   
2024-02-18 21:255.29334   
2024-02-18 21:205.27328   
2024-02-18 21:155.29334   
2024-02-18 21:105.28331   
2024-02-18 21:055.29334   
2024-02-18 21:005.29334   
2024-02-18 20:555.29334   
2024-02-18 20:505.28331   
2024-02-18 20:455.29334   
2024-02-18 20:405.29334   
2024-02-18 20:355.29334   
2024-02-18 20:305.29334   
2024-02-18 20:255.29334   
2024-02-18 20:205.28331   
2024-02-18 20:155.29334   
2024-02-18 20:105.28331   
2024-02-18 20:055.29334   
2024-02-18 20:005.29334   
2024-02-18 19:555.29334   
2024-02-18 19:505.28331   
2024-02-18 19:455.28331   
2024-02-18 19:405.28331   
2024-02-18 19:355.28331   
2024-02-18 19:305.28331   
2024-02-18 19:255.29334   
2024-02-18 19:205.29334   
2024-02-18 19:155.28331   
2024-02-18 19:105.29334   
2024-02-18 19:055.29334   
2024-02-18 19:005.28331   
2024-02-18 18:555.28331   
2024-02-18 18:505.28331   
2024-02-18 18:455.28331   
2024-02-18 18:405.29334   
2024-02-18 18:355.29334   
2024-02-18 18:305.28331   
2024-02-18 18:255.29334   
2024-02-18 18:205.29334   
2024-02-18 18:155.29334   
2024-02-18 18:105.28331   
2024-02-18 18:055.28331   
2024-02-18 18:005.29334   
2024-02-18 17:555.29334   
2024-02-18 17:505.27328   
2024-02-18 17:455.29334   
2024-02-18 17:405.28331   
2024-02-18 17:355.29334   
2024-02-18 17:305.29334   
2024-02-18 17:255.29334   
2024-02-18 17:205.28331   
2024-02-18 17:155.29334   
2024-02-18 17:105.28331   
2024-02-18 17:055.28331   
2024-02-18 17:005.29334   
2024-02-18 16:555.29334   
2024-02-18 16:505.29334   
2024-02-18 16:455.29334   
2024-02-18 16:405.28331   
2024-02-18 16:355.29334   
2024-02-18 16:305.28331   
2024-02-18 16:255.28331   
2024-02-18 16:205.28331   
2024-02-18 16:155.29334   
2024-02-18 16:105.29334   
2024-02-18 16:055.28331   
2024-02-18 16:005.29334   
2024-02-18 15:555.30336   
2024-02-18 15:505.29334   
2024-02-18 15:455.29334   
2024-02-18 15:405.29334   
2024-02-18 15:355.28331   
2024-02-18 15:305.28331   
2024-02-18 15:255.29334   
2024-02-18 15:205.29334   
2024-02-18 15:155.29334   
2024-02-18 15:105.29334   
2024-02-18 15:055.29334   
2024-02-18 15:005.29334   
2024-02-18 14:555.29334   
2024-02-18 14:505.29334   
2024-02-18 14:455.29334   
2024-02-18 14:405.28331   
2024-02-18 14:355.29334   
2024-02-18 14:305.29334   
2024-02-18 14:255.29334   
2024-02-18 14:205.29334   
2024-02-18 14:155.29334   
2024-02-18 14:105.29334   
2024-02-18 14:055.29334   
2024-02-18 14:005.30336   
2024-02-18 13:555.29334   
2024-02-18 13:505.29334   
2024-02-18 13:455.30336   
2024-02-18 13:405.30336   
2024-02-18 13:355.29334   
2024-02-18 13:305.29334   
2024-02-18 13:255.30336   
2024-02-18 13:205.29334   
2024-02-18 13:155.29334   
2024-02-18 13:105.29334   
2024-02-18 13:055.28331   
2024-02-18 13:005.30336   
2024-02-18 12:555.29334   
2024-02-18 12:505.29334   
2024-02-18 12:455.30336   
2024-02-18 12:405.29334   
2024-02-18 12:355.29334   
2024-02-18 12:305.30336   
2024-02-18 12:255.29334   
2024-02-18 12:205.29334   
2024-02-18 12:155.28331   
2024-02-18 12:105.29334   
2024-02-18 12:055.30336   
2024-02-18 12:005.29334   
2024-02-18 11:555.29334   
2024-02-18 11:505.29334   
2024-02-18 11:455.29334   
2024-02-18 11:405.30336   
2024-02-18 11:355.30336   
2024-02-18 11:305.29334   
2024-02-18 11:255.30336   
2024-02-18 11:205.30336   
2024-02-18 11:155.30336   
2024-02-18 11:105.30336   
2024-02-18 11:055.30336   
2024-02-18 11:005.29334   
2024-02-18 10:555.30336   
2024-02-18 10:505.29334   
2024-02-18 10:455.28331   
2024-02-18 10:405.31339   
2024-02-18 10:355.30336   
2024-02-18 10:305.29334   
2024-02-18 10:255.30336   
2024-02-18 10:205.30336   
2024-02-18 10:155.29334   
2024-02-18 10:105.30336   
2024-02-18 10:055.29334   
2024-02-18 10:005.30336   
2024-02-18 09:555.28331   
2024-02-18 09:505.29334   
2024-02-18 09:455.29334   
2024-02-18 09:405.29334   
2024-02-18 09:355.29334   
2024-02-18 09:305.30336   
2024-02-18 09:255.28331   
2024-02-18 09:205.29334   
2024-02-18 09:155.30336   
2024-02-18 09:105.29334   
2024-02-18 09:055.29334   
2024-02-18 09:005.29334   
2024-02-18 08:555.29334   
2024-02-18 08:505.29334   
2024-02-18 08:455.29334   
2024-02-18 08:405.29334   
2024-02-18 08:355.29334   
2024-02-18 08:305.30336   
2024-02-18 08:255.29334   
2024-02-18 08:205.29334   
2024-02-18 08:155.29334   
2024-02-18 08:105.29334   
2024-02-18 08:055.29334   
2024-02-18 08:005.29334   
2024-02-18 07:555.29334   
2024-02-18 07:505.29334   
2024-02-18 07:455.29334   
2024-02-18 07:405.30336   
2024-02-18 07:355.29334   
2024-02-18 07:305.29334   
2024-02-18 07:255.30336   
2024-02-18 07:205.29334   
2024-02-18 07:155.29334   
2024-02-18 07:105.30336   
2024-02-18 07:055.29334   
2024-02-18 07:005.29334   
2024-02-18 06:555.29334   
2024-02-18 06:505.29334   
2024-02-18 06:455.29334   
2024-02-18 06:405.29334   
2024-02-18 06:355.29334   
2024-02-18 06:305.29334   
2024-02-18 06:255.29334   
2024-02-18 06:205.29334   
2024-02-18 06:155.29334   
2024-02-18 06:105.29334   
2024-02-18 06:055.29334   
2024-02-18 06:005.29334   
2024-02-18 05:555.28331   
2024-02-18 05:505.29334   
2024-02-18 05:455.29334   
2024-02-18 05:405.30336   
2024-02-18 05:355.28331   
2024-02-18 05:305.29334   
2024-02-18 05:255.28331   
2024-02-18 05:205.28331   
2024-02-18 05:155.29334   
2024-02-18 05:105.29334   
2024-02-18 05:055.29334   
2024-02-18 05:005.29334   
2024-02-18 04:555.29334   
2024-02-18 04:505.29334   
2024-02-18 04:455.30336   
2024-02-18 04:405.29334   
2024-02-18 04:355.29334   
2024-02-18 04:305.29334   
2024-02-18 04:255.29334   
2024-02-18 04:205.30336   
2024-02-18 04:155.29334   
2024-02-18 04:105.28331   
2024-02-18 04:055.29334   
2024-02-18 04:005.30336   
2024-02-18 03:555.29334   
2024-02-18 03:505.30336   
2024-02-18 03:455.30336   
2024-02-18 03:405.30336   
2024-02-18 03:355.30336   
2024-02-18 03:305.30336   
2024-02-18 03:255.30336   
2024-02-18 03:205.30336   
2024-02-18 03:155.30336   
2024-02-18 03:105.29334   
2024-02-18 03:055.30336   
2024-02-18 03:005.30336   
2024-02-18 02:555.30336   
2024-02-18 02:505.30336   
2024-02-18 02:455.30336   
2024-02-18 02:405.30336   
2024-02-18 02:355.31339   
2024-02-18 02:305.30336   
2024-02-18 02:255.30336   
2024-02-18 02:205.30336   
2024-02-18 02:155.31339   
2024-02-18 02:105.30336   
2024-02-18 02:055.31339   
2024-02-18 02:005.30336   
2024-02-18 01:555.30336   
2024-02-18 01:505.30336   
2024-02-18 01:455.31339   
2024-02-18 01:405.30336   
2024-02-18 01:355.30336   
2024-02-18 01:305.30336   
2024-02-18 01:255.31339   
2024-02-18 01:205.31339   
2024-02-18 01:155.30336   
2024-02-18 01:105.30336   
2024-02-18 01:055.31339   
2024-02-18 01:005.30336   
2024-02-18 00:555.31339   
2024-02-18 00:505.31339   
2024-02-18 00:455.31339   
2024-02-18 00:405.30336   
2024-02-18 00:355.31339   
2024-02-18 00:305.31339   
2024-02-18 00:255.30336   
2024-02-18 00:205.31339   
2024-02-18 00:155.31339   
2024-02-18 00:105.30336   
2024-02-18 00:055.30336   
2024-02-18 00:005.31339   
2024-02-17 23:555.30336   
2024-02-17 23:505.30336   
2024-02-17 23:455.30336   
2024-02-17 23:405.31339   
2024-02-17 23:355.30336   
2024-02-17 23:305.30336   
2024-02-17 23:255.30336   
2024-02-17 23:205.30336   
2024-02-17 23:155.31339   
2024-02-17 23:105.30336   
2024-02-17 23:055.31339   
2024-02-17 23:005.30336   
2024-02-17 22:555.30336   
2024-02-17 22:505.30336   
2024-02-17 22:455.30336   
2024-02-17 22:405.29334   
2024-02-17 22:355.31339   
2024-02-17 22:305.30336   
2024-02-17 22:255.30336   
2024-02-17 22:205.30336   
2024-02-17 22:155.29334   
2024-02-17 22:105.31339   
2024-02-17 22:055.30336   
2024-02-17 22:005.30336   
2024-02-17 21:555.30336   
2024-02-17 21:505.30336   
2024-02-17 21:455.30336   
2024-02-17 21:405.29334   
2024-02-17 21:355.30336   
2024-02-17 21:305.30336   
2024-02-17 21:255.29334   
2024-02-17 21:205.30336   
2024-02-17 21:155.30336   
2024-02-17 21:105.29334   
2024-02-17 21:055.29334   
2024-02-17 21:005.29334   
2024-02-17 20:555.30336   
2024-02-17 20:505.29334   
2024-02-17 20:455.30336   
2024-02-17 20:405.29334   
2024-02-17 20:355.29334   
2024-02-17 20:305.29334   
2024-02-17 20:255.29334   
2024-02-17 20:205.30336   
2024-02-17 20:155.29334   
2024-02-17 20:105.29334   
2024-02-17 20:055.29334   
2024-02-17 20:005.28331   
2024-02-17 19:555.28331   
2024-02-17 19:505.30336   
2024-02-17 19:455.28331   
2024-02-17 19:405.28331   
2024-02-17 19:355.28331   
2024-02-17 19:305.29334   
2024-02-17 19:255.29334   
2024-02-17 19:205.29334   
2024-02-17 19:155.28331   
2024-02-17 19:105.28331   
2024-02-17 19:055.28331   
2024-02-17 19:005.28331   
2024-02-17 18:555.28331   
2024-02-17 18:505.28331   
2024-02-17 18:455.28331   
2024-02-17 18:405.28331   
2024-02-17 18:355.28331   
2024-02-17 18:305.28331   
2024-02-17 18:255.28331   
2024-02-17 18:205.28331   
2024-02-17 18:155.28331   
2024-02-17 18:105.28331   
2024-02-17 18:055.28331   
2024-02-17 18:005.28331   
2024-02-17 17:555.27328   
2024-02-17 17:505.27328   
2024-02-17 17:455.27328   
2024-02-17 17:405.27328   
2024-02-17 17:355.27328   
2024-02-17 17:305.27328   
2024-02-17 17:255.27328   
2024-02-17 17:205.28331   
2024-02-17 17:155.27328   
2024-02-17 17:105.27328   
2024-02-17 17:055.27328   
2024-02-17 17:005.27328   
2024-02-17 16:555.27328   
2024-02-17 16:505.26325   
2024-02-17 16:455.27328   
2024-02-17 16:405.27328   
2024-02-17 16:355.27328   
2024-02-17 16:305.27328   
2024-02-17 16:255.27328   
2024-02-17 16:205.26325   
2024-02-17 16:155.27328   
2024-02-17 16:105.26325   
2024-02-17 16:055.26325   
2024-02-17 16:005.27328   
2024-02-17 15:555.26325   
2024-02-17 15:505.27328   
2024-02-17 15:455.26325   
2024-02-17 15:405.26325   
2024-02-17 15:355.27328   
2024-02-17 15:305.26325   
2024-02-17 15:255.26325   
2024-02-17 15:205.26325   
2024-02-17 15:155.26325   
2024-02-17 15:105.26325   
2024-02-17 15:055.26325   
2024-02-17 15:005.27328   
2024-02-17 14:555.26325   
2024-02-17 14:505.26325   
2024-02-17 14:455.26325   
2024-02-17 14:405.26325   
2024-02-17 14:355.26325   
2024-02-17 14:305.26325   
2024-02-17 14:255.26325   
2024-02-17 14:205.26325   
2024-02-17 14:155.26325   
2024-02-17 14:105.26325   
2024-02-17 14:055.26325   
2024-02-17 14:005.26325   
2024-02-17 13:555.26325   
2024-02-17 13:505.26325   
2024-02-17 13:455.26325   
2024-02-17 13:405.25322   
2024-02-17 13:355.25322   
2024-02-17 13:305.25322   
2024-02-17 13:255.25322   
2024-02-17 13:205.26325   
2024-02-17 13:155.25322   
2024-02-17 13:105.25322   
2024-02-17 13:055.25322   
2024-02-17 13:005.26325   
2024-02-17 12:555.26325   
2024-02-17 12:505.26325   
2024-02-17 12:455.25322   
2024-02-17 12:405.25322   
2024-02-17 12:355.25322   
2024-02-17 12:305.26325   
2024-02-17 12:255.25322   
2024-02-17 12:205.25322   
2024-02-17 12:155.25322   
2024-02-17 12:105.25322   
2024-02-17 12:055.25322   
2024-02-17 12:005.25322   
2024-02-17 11:555.24320   
2024-02-17 11:505.25322   
2024-02-17 11:455.25322   
2024-02-17 11:405.25322   
2024-02-17 11:355.24320   
2024-02-17 11:305.25322   
2024-02-17 11:255.25322   
2024-02-17 11:205.25322   
2024-02-17 11:155.25322   
2024-02-17 11:105.25322   
2024-02-17 11:055.25322   
2024-02-17 11:005.25322   
2024-02-17 10:555.25322   
2024-02-17 10:505.24320   
2024-02-17 10:455.25322   
2024-02-17 10:405.25322   
2024-02-17 10:355.25322   
2024-02-17 10:305.25322   
2024-02-17 10:255.26325   
2024-02-17 10:205.25322   
2024-02-17 10:155.25322   
2024-02-17 10:105.25322   
2024-02-17 10:055.25322   
2024-02-17 10:005.25322   
2024-02-17 09:555.25322   
2024-02-17 09:505.25322   
2024-02-17 09:455.25322   
2024-02-17 09:405.25322   
2024-02-17 09:355.25322   
2024-02-17 09:305.25322   
2024-02-17 09:255.25322   
2024-02-17 09:205.25322   
2024-02-17 09:155.25322   
2024-02-17 09:105.25322   
2024-02-17 09:055.25322   
2024-02-17 09:005.25322   
2024-02-17 08:555.25322   
2024-02-17 08:505.25322   
2024-02-17 08:455.26325   
2024-02-17 08:405.25322   
2024-02-17 08:355.25322   
2024-02-17 08:305.26325   
2024-02-17 08:255.25322   
2024-02-17 08:205.25322   
2024-02-17 08:155.26325   
2024-02-17 08:105.25322   
2024-02-17 08:055.25322   
2024-02-17 08:005.25322   
2024-02-17 07:555.26325   
2024-02-17 07:505.25322   
2024-02-17 07:455.25322   
2024-02-17 07:405.26325   
2024-02-17 07:355.25322   
2024-02-17 07:305.25322   
2024-02-17 07:255.25322   
2024-02-17 07:205.26325   
2024-02-17 07:155.25322   
2024-02-17 07:105.25322   
2024-02-17 07:055.25322   
2024-02-17 07:005.25322   
2024-02-17 06:555.25322   
2024-02-17 06:505.25322   
2024-02-17 06:455.25322   
2024-02-17 06:405.25322   
2024-02-17 06:355.26325   
2024-02-17 06:305.24320   
2024-02-17 06:255.25322   
2024-02-17 06:205.25322   
2024-02-17 06:155.24320   
2024-02-17 06:105.25322   
2024-02-17 06:055.25322   
2024-02-17 06:005.25322   
2024-02-17 05:555.25322   
2024-02-17 05:505.25322   
2024-02-17 05:455.25322   
2024-02-17 05:405.25322   
2024-02-17 05:355.25322   
2024-02-17 05:305.26325   
2024-02-17 05:255.25322   
2024-02-17 05:205.25322   
2024-02-17 05:155.26325   
2024-02-17 05:105.25322   
2024-02-17 05:055.25322   
2024-02-17 05:005.26325   
2024-02-17 04:555.25322   
2024-02-17 04:505.25322   
2024-02-17 04:455.25322   
2024-02-17 04:405.25322   
2024-02-17 04:355.25322   
2024-02-17 04:305.25322   
2024-02-17 04:255.25322   
2024-02-17 04:205.25322   
2024-02-17 04:155.25322   
2024-02-17 04:105.25322   
2024-02-17 04:055.25322   
2024-02-17 04:005.25322   
2024-02-17 03:555.25322   
2024-02-17 03:505.25322   
2024-02-17 03:455.25322   
2024-02-17 03:405.25322   
2024-02-17 03:355.25322   
2024-02-17 03:305.25322   
2024-02-17 03:255.25322   
2024-02-17 03:205.25322   
2024-02-17 03:155.25322   
2024-02-17 03:105.25322   
2024-02-17 03:055.26325   
2024-02-17 03:005.25322   
2024-02-17 02:555.25322   
2024-02-17 02:505.25322   
2024-02-17 02:455.25322   
2024-02-17 02:405.25322   
2024-02-17 02:355.25322   
2024-02-17 02:305.25322   
2024-02-17 02:255.25322   
2024-02-17 02:205.25322   
2024-02-17 02:155.25322   
2024-02-17 02:105.26325   
2024-02-17 02:055.25322   
2024-02-17 02:005.25322   
2024-02-17 01:555.25322   
2024-02-17 01:505.25322   
2024-02-17 01:455.25322   
2024-02-17 01:405.26325   
2024-02-17 01:355.26325   
2024-02-17 01:305.25322   
2024-02-17 01:255.25322   
2024-02-17 01:205.26325   
2024-02-17 01:155.25322   
2024-02-17 01:105.26325   
2024-02-17 01:055.26325   
2024-02-17 01:005.26325   
2024-02-17 00:555.26325   
2024-02-17 00:505.25322   
2024-02-17 00:455.26325   
2024-02-17 00:405.26325   
2024-02-17 00:355.26325   
2024-02-17 00:305.26325   
2024-02-17 00:255.25322   
2024-02-17 00:205.26325   
2024-02-17 00:155.25322   
2024-02-17 00:105.26325   
2024-02-17 00:055.25322   
2024-02-17 00:005.26325   
2024-02-16 23:555.26325   
2024-02-16 23:505.25322   
2024-02-16 23:455.26325   
2024-02-16 23:405.26325   
2024-02-16 23:355.26325   
2024-02-16 23:305.26325   
2024-02-16 23:255.26325   
2024-02-16 23:205.26325   
2024-02-16 23:155.25322   
2024-02-16 23:105.26325   
2024-02-16 23:055.26325   
2024-02-16 23:005.26325   
2024-02-16 22:555.26325   
2024-02-16 22:505.26325   
2024-02-16 22:455.26325   
2024-02-16 22:405.26325   
2024-02-16 22:355.26325   
2024-02-16 22:305.26325   
2024-02-16 22:255.26325   
2024-02-16 22:205.26325   
2024-02-16 22:155.26325   
2024-02-16 22:105.26325   
2024-02-16 22:055.26325   
2024-02-16 22:005.26325   
2024-02-16 21:555.26325   
2024-02-16 21:505.26325   
2024-02-16 21:455.26325   
2024-02-16 21:405.26325   
2024-02-16 21:355.26325   
2024-02-16 21:305.26325   
2024-02-16 21:255.26325   
2024-02-16 21:205.26325   
2024-02-16 21:155.26325   
2024-02-16 21:105.26325   
2024-02-16 21:055.26325   
2024-02-16 21:005.26325   
2024-02-16 20:555.26325   
2024-02-16 20:505.26325   
2024-02-16 20:455.26325   
2024-02-16 20:405.26325   
2024-02-16 20:355.26325   
2024-02-16 20:305.26325   
2024-02-16 20:255.26325   
2024-02-16 20:205.26325   
2024-02-16 20:155.26325   
2024-02-16 20:105.26325   
2024-02-16 20:055.26325   
2024-02-16 20:005.27328   
2024-02-16 19:555.26325   
2024-02-16 19:505.26325   
2024-02-16 19:455.26325   
2024-02-16 19:405.26325   
2024-02-16 19:355.26325   
2024-02-16 19:305.26325   
2024-02-16 19:255.26325   
2024-02-16 19:205.26325   
2024-02-16 19:155.25322   
2024-02-16 19:105.26325   
2024-02-16 19:055.26325   
2024-02-16 19:005.26325   
2024-02-16 18:555.26325   
2024-02-16 18:505.26325   
2024-02-16 18:455.26325   
2024-02-16 18:405.26325   
2024-02-16 18:355.26325   
2024-02-16 18:305.26325   
2024-02-16 18:255.26325   
2024-02-16 18:205.26325   
2024-02-16 18:155.26325   
2024-02-16 18:105.26325   
2024-02-16 18:055.26325   
2024-02-16 18:005.27328   
2024-02-16 17:555.26325   
2024-02-16 17:505.26325   
2024-02-16 17:455.26325   
2024-02-16 17:405.27328   
2024-02-16 17:355.26325   
2024-02-16 17:305.27328   
2024-02-16 17:255.26325   
2024-02-16 17:205.26325   
2024-02-16 17:155.26325   
2024-02-16 17:105.25322   
2024-02-16 17:055.25322   
2024-02-16 17:005.26325   
2024-02-16 16:555.26325   
2024-02-16 16:505.26325   
2024-02-16 16:455.26325   
2024-02-16 16:405.26325   
2024-02-16 16:355.26325   
2024-02-16 16:305.26325   
2024-02-16 16:255.26325   
2024-02-16 16:205.26325   
2024-02-16 16:155.26325   
2024-02-16 16:105.26325   
2024-02-16 16:055.26325   
2024-02-16 16:005.26325   
2024-02-16 15:555.26325   
2024-02-16 15:505.26325   
2024-02-16 15:455.26325   
2024-02-16 15:405.26325   
2024-02-16 15:355.26325   
2024-02-16 15:305.26325   
2024-02-16 15:255.26325   
2024-02-16 15:205.26325   
2024-02-16 15:155.26325   
2024-02-16 15:105.25322   
2024-02-16 15:055.26325   
2024-02-16 15:005.26325   
2024-02-16 14:555.26325   
2024-02-16 14:505.26325   
2024-02-16 14:455.26325   
2024-02-16 14:405.26325   
2024-02-16 14:355.25322   
2024-02-16 14:305.26325   
2024-02-16 14:255.26325   
2024-02-16 14:205.26325   
2024-02-16 14:155.26325   
2024-02-16 14:105.25322   
2024-02-16 14:055.25322   
2024-02-16 14:005.26325   
2024-02-16 13:555.26325   
2024-02-16 13:505.26325   
2024-02-16 13:455.26325   
2024-02-16 13:405.25322   
2024-02-16 13:355.26325   
2024-02-16 13:305.25322   
2024-02-16 13:255.26325   
2024-02-16 13:205.26325   
2024-02-16 13:155.26325   
2024-02-16 13:105.26325   
2024-02-16 13:055.26325   
2024-02-16 13:005.26325   
2024-02-16 12:555.26325   
2024-02-16 12:505.26325   
2024-02-16 12:455.26325   
2024-02-16 12:405.26325   
2024-02-16 12:355.26325   
2024-02-16 12:305.26325   
2024-02-16 12:255.26325   
2024-02-16 12:205.26325   
2024-02-16 12:155.26325   
2024-02-16 12:105.26325   
2024-02-16 12:055.25322   
2024-02-16 12:005.25322   
2024-02-16 11:555.26325   
2024-02-16 11:505.26325   
2024-02-16 11:455.26325   
2024-02-16 11:405.26325   
2024-02-16 11:355.27328   
2024-02-16 11:305.26325   
2024-02-16 11:255.27328   
2024-02-16 11:205.26325   
2024-02-16 11:155.26325   
2024-02-16 11:105.26325   
2024-02-16 11:055.26325   
2024-02-16 11:005.26325   
2024-02-16 10:555.27328   
2024-02-16 10:505.26325   
2024-02-16 10:455.27328   
2024-02-16 10:405.26325   
2024-02-16 10:355.27328   
2024-02-16 10:305.27328   
2024-02-16 10:255.27328   
2024-02-16 10:205.27328   
2024-02-16 10:155.26325   
2024-02-16 10:105.27328   
2024-02-16 10:055.27328   
2024-02-16 10:005.26325   
2024-02-16 09:555.27328   
2024-02-16 09:505.27328   
2024-02-16 09:455.27328   
2024-02-16 09:405.27328   
2024-02-16 09:355.27328   
2024-02-16 09:305.26325   
2024-02-16 09:255.27328   
2024-02-16 09:205.27328   
2024-02-16 09:155.28331   
2024-02-16 09:105.27328   
2024-02-16 09:055.28331   
2024-02-16 09:005.27328   
2024-02-16 08:555.26325   
2024-02-16 08:505.27328   
2024-02-16 08:455.26325   
2024-02-16 08:405.27328   
2024-02-16 08:355.27328   
2024-02-16 08:305.27328   
2024-02-16 08:255.27328   
2024-02-16 08:205.28331   
2024-02-16 08:155.27328   
2024-02-16 08:105.28331   
2024-02-16 08:055.28331   
2024-02-16 08:005.28331   
2024-02-16 07:555.28331   
2024-02-16 07:505.27328   
2024-02-16 07:455.27328   
2024-02-16 07:405.28331   
2024-02-16 07:355.28331   
2024-02-16 07:305.27328   
2024-02-16 07:255.27328   
2024-02-16 07:205.28331   
2024-02-16 07:155.27328   
2024-02-16 07:105.27328   
2024-02-16 07:055.27328   
2024-02-16 07:005.27328   
2024-02-16 06:555.28331   
2024-02-16 06:505.27328   
2024-02-16 06:455.27328   
2024-02-16 06:405.27328   
2024-02-16 06:355.27328   
2024-02-16 06:305.27328   
2024-02-16 06:255.27328   
2024-02-16 06:205.26325   
2024-02-16 06:155.27328   
2024-02-16 06:105.27328   
2024-02-16 06:055.27328   
2024-02-16 06:005.27328   
2024-02-16 05:555.27328   
2024-02-16 05:505.26325   
2024-02-16 05:455.26325   
2024-02-16 05:405.27328   
2024-02-16 05:355.27328   
2024-02-16 05:305.26325   
2024-02-16 05:255.27328   
2024-02-16 05:205.27328   
2024-02-16 05:155.27328   
2024-02-16 05:105.27328   
2024-02-16 05:055.27328   
2024-02-16 05:005.27328   
2024-02-16 04:555.27328   
2024-02-16 04:505.26325   
2024-02-16 04:455.27328   
2024-02-16 04:405.27328   
2024-02-16 04:355.27328   
2024-02-16 04:305.28331   
2024-02-16 04:255.27328   
2024-02-16 04:205.27328   
2024-02-16 04:155.26325   
2024-02-16 04:105.26325   
2024-02-16 04:055.26325   
2024-02-16 04:005.27328   
2024-02-16 03:555.26325   
2024-02-16 03:505.27328   
2024-02-16 03:455.27328   
2024-02-16 03:405.27328   
2024-02-16 03:355.28331   
2024-02-16 03:305.27328   
2024-02-16 03:255.27328   
2024-02-16 03:205.28331   
2024-02-16 03:155.27328   
2024-02-16 03:105.27328   
2024-02-16 03:055.27328   
2024-02-16 03:005.27328   
2024-02-16 02:555.27328   
2024-02-16 02:505.27328   
2024-02-16 02:455.27328   
2024-02-16 02:405.28331   
2024-02-16 02:355.28331   
2024-02-16 02:305.27328   
2024-02-16 02:255.28331   
2024-02-16 02:205.28331   
2024-02-16 02:155.27328   
2024-02-16 02:105.28331   
2024-02-16 02:055.27328   
2024-02-16 02:005.27328   
2024-02-16 01:555.28331   
2024-02-16 01:505.28331   
2024-02-16 01:455.28331   
2024-02-16 01:405.27328   
2024-02-16 01:355.27328   
2024-02-16 01:305.27328   
2024-02-16 01:255.27328   
2024-02-16 01:205.28331   
2024-02-16 01:155.27328   
2024-02-16 01:105.27328   
2024-02-16 01:055.26325   
2024-02-16 01:005.27328   
2024-02-16 00:555.27328   
2024-02-16 00:505.27328   
2024-02-16 00:455.26325   
2024-02-16 00:405.27328   
2024-02-16 00:355.27328   
2024-02-16 00:305.27328   
2024-02-16 00:255.27328   
2024-02-16 00:205.27328   
2024-02-16 00:155.27328   
2024-02-16 00:105.26325   
2024-02-16 00:055.27328   
2024-02-16 00:005.26325   
2024-02-15 23:555.27328   
2024-02-15 23:505.27328   
2024-02-15 23:455.26325   
2024-02-15 23:405.26325   
2024-02-15 23:355.25322   
2024-02-15 23:305.26325   
2024-02-15 23:255.26325   
2024-02-15 23:205.26325   
2024-02-15 23:155.26325   
2024-02-15 23:105.25322   
2024-02-15 23:055.25322   
2024-02-15 23:005.26325   
2024-02-15 22:555.25322   
2024-02-15 22:505.25322   
2024-02-15 22:455.25322   
2024-02-15 22:405.25322   
2024-02-15 22:355.25322   
2024-02-15 22:305.25322   
2024-02-15 22:255.25322   
2024-02-15 22:205.25322   
2024-02-15 22:155.25322   
2024-02-15 22:105.24320   
2024-02-15 22:055.24320   
2024-02-15 22:005.23317   
2024-02-15 21:555.24320   
2024-02-15 21:505.25322   
2024-02-15 21:455.24320   
2024-02-15 21:405.23317   
2024-02-15 21:355.24320   
2024-02-15 21:305.23317   
2024-02-15 21:255.23317   
2024-02-15 21:205.23317   
2024-02-15 21:155.23317   
2024-02-15 21:105.23317   
2024-02-15 21:055.22314   
2024-02-15 21:005.24320   
2024-02-15 20:555.23317   
2024-02-15 20:505.23317   
2024-02-15 20:455.23317   
2024-02-15 20:405.23317   
2024-02-15 20:355.22314   
2024-02-15 20:305.23317   
2024-02-15 20:255.22314   
2024-02-15 20:205.23317   
2024-02-15 20:155.22314   
2024-02-15 20:105.22314   
2024-02-15 20:055.22314   
2024-02-15 20:005.22314   
2024-02-15 19:555.22314   
2024-02-15 19:505.22314   
2024-02-15 19:455.21311   
2024-02-15 19:405.22314   
2024-02-15 19:355.22314   
2024-02-15 19:305.21311   
2024-02-15 19:255.22314   
2024-02-15 19:205.22314   
2024-02-15 19:155.21311   
2024-02-15 19:105.20309   
2024-02-15 19:055.21311   
2024-02-15 19:005.21311   
2024-02-15 18:555.21311   
2024-02-15 18:505.21311   
2024-02-15 18:455.21311   
2024-02-15 18:405.20309   
2024-02-15 18:355.20309   
2024-02-15 18:305.20309   
2024-02-15 18:255.20309   
2024-02-15 18:205.19306   
2024-02-15 18:155.19306   
2024-02-15 18:105.19306   
2024-02-15 18:055.19306   
2024-02-15 18:005.19306   
2024-02-15 17:555.19306   
2024-02-15 17:505.19306   
2024-02-15 17:455.20309   
2024-02-15 17:405.19306   
2024-02-15 17:355.19306   
2024-02-15 17:305.18303   
2024-02-15 17:255.19306   
2024-02-15 17:205.19306   
2024-02-15 17:155.18303   
2024-02-15 17:105.19306   
2024-02-15 17:055.18303   
2024-02-15 17:005.18303   
2024-02-15 16:555.18303   
2024-02-15 16:505.18303   
2024-02-15 16:455.18303   
2024-02-15 16:405.17301   
2024-02-15 16:355.18303   
2024-02-15 16:305.18303   
2024-02-15 16:255.18303   
2024-02-15 16:205.18303   
2024-02-15 16:155.17301   
2024-02-15 16:105.17301   
2024-02-15 16:055.17301   
2024-02-15 16:005.17301   
2024-02-15 15:555.17301   
2024-02-15 15:505.17301   
2024-02-15 15:455.16298   
2024-02-15 15:405.16298   
2024-02-15 15:355.16298   
2024-02-15 15:305.17301   
2024-02-15 15:255.16298   
2024-02-15 15:205.16298   
2024-02-15 15:155.16298   
2024-02-15 15:105.16298   
2024-02-15 15:055.16298   
2024-02-15 15:005.17301   
2024-02-15 14:555.16298   
2024-02-15 14:505.16298   
2024-02-15 14:455.16298   
2024-02-15 14:405.16298   
2024-02-15 14:355.16298   
2024-02-15 14:305.16298   
2024-02-15 14:255.16298   
2024-02-15 14:205.15295   
2024-02-15 14:155.16298   
2024-02-15 14:105.16298   
2024-02-15 14:055.15295   
2024-02-15 14:005.15295   
2024-02-15 13:555.16298   
2024-02-15 13:505.15295   
2024-02-15 13:455.16298   
2024-02-15 13:405.15295   
2024-02-15 13:355.16298   
2024-02-15 13:305.15295   
2024-02-15 13:255.14293   
2024-02-15 13:205.15295   
2024-02-15 13:155.15295   
2024-02-15 13:105.15295   
2024-02-15 13:055.16298   
2024-02-15 13:005.15295   
2024-02-15 12:555.15295   
2024-02-15 12:505.15295   
2024-02-15 12:455.15295   
2024-02-15 12:405.15295   
2024-02-15 12:355.16298   
2024-02-15 12:305.14293   
2024-02-15 12:255.14293   
2024-02-15 12:205.15295   
2024-02-15 12:155.15295   
2024-02-15 12:105.14293   
2024-02-15 12:055.14293   
2024-02-15 12:005.14293   
2024-02-15 11:555.15295   
2024-02-15 11:505.14293   
2024-02-15 11:455.14293   
2024-02-15 11:405.15295   
2024-02-15 11:355.15295   
2024-02-15 11:305.14293   
2024-02-15 11:255.15295   
2024-02-15 11:205.14293   
2024-02-15 11:155.15295   
2024-02-15 11:105.15295   
2024-02-15 11:055.15295   
2024-02-15 11:005.15295   
2024-02-15 10:555.14293   
2024-02-15 10:505.15295   
2024-02-15 10:455.15295   
2024-02-15 10:405.14293   
2024-02-15 10:355.15295   
2024-02-15 10:305.15295   
2024-02-15 10:255.15295   
2024-02-15 10:205.15295   
2024-02-15 10:155.16298   
2024-02-15 10:105.15295   
2024-02-15 10:055.15295   
2024-02-15 10:005.16298   
2024-02-15 09:555.15295   
2024-02-15 09:505.15295   
2024-02-15 09:455.16298   
2024-02-15 09:405.16298   
2024-02-15 09:355.15295   
2024-02-15 09:305.15295   
2024-02-15 09:255.17301   
2024-02-15 09:205.16298   
2024-02-15 09:155.16298   
2024-02-15 09:105.17301   
2024-02-15 09:055.16298   
2024-02-15 09:005.16298   
2024-02-15 08:555.16298   
2024-02-15 08:505.16298   
2024-02-15 08:455.16298   
2024-02-15 08:405.16298   
2024-02-15 08:355.17301   
2024-02-15 08:305.16298   
2024-02-15 08:255.17301   
2024-02-15 08:205.16298   
2024-02-15 08:155.16298   
2024-02-15 08:105.16298   
2024-02-15 08:055.16298   
2024-02-15 08:005.15295   
2024-02-15 07:555.16298   
2024-02-15 07:505.15295   
2024-02-15 07:455.14293   
2024-02-15 07:405.16298   
2024-02-15 07:355.16298   
2024-02-15 07:305.15295   
2024-02-15 07:255.14293   
2024-02-15 07:205.14293   
2024-02-15 07:155.14293   
2024-02-15 07:105.15295   
2024-02-15 07:055.13290   
2024-02-15 07:005.13290   
2024-02-15 06:555.13290   
2024-02-15 06:505.13290   
2024-02-15 06:455.13290   
2024-02-15 06:405.13290   
2024-02-15 06:355.13290   
2024-02-15 06:305.13290   
2024-02-15 06:255.13290   
2024-02-15 06:205.12288   
2024-02-15 06:155.12288   
2024-02-15 06:105.12288   
2024-02-15 06:055.11285   
2024-02-15 06:005.11285   
2024-02-15 05:555.11285   
2024-02-15 05:505.11285   
2024-02-15 05:455.11285   
2024-02-15 05:405.11285   
2024-02-15 05:355.11285   
2024-02-15 05:305.10282   
2024-02-15 05:255.10282   
2024-02-15 05:205.10282   
2024-02-15 05:155.09280   
2024-02-15 05:105.10282   
2024-02-15 05:055.09280   
2024-02-15 05:005.09280   
2024-02-15 04:555.09280   
2024-02-15 04:505.09280   
2024-02-15 04:455.09280   
2024-02-15 04:405.09280   
2024-02-15 04:355.09280   
2024-02-15 04:305.09280   
2024-02-15 04:255.08277   
2024-02-15 04:205.08277   
2024-02-15 04:155.08277   
2024-02-15 04:105.08277   
2024-02-15 04:055.08277   
2024-02-15 04:005.08277   
2024-02-15 03:555.07275   
2024-02-15 03:505.07275   
2024-02-15 03:455.07275   
2024-02-15 03:405.06272   
2024-02-15 03:355.06272   
2024-02-15 03:305.06272   
2024-02-15 03:255.06272   
2024-02-15 03:205.05270   
2024-02-15 03:155.05270   
2024-02-15 03:105.05270   
2024-02-15 03:055.05270   
2024-02-15 03:005.04267   
2024-02-15 02:555.04267   
2024-02-15 02:505.04267   
2024-02-15 02:455.03265   
2024-02-15 02:405.03265   
2024-02-15 02:355.03265   
2024-02-15 02:305.03265   
2024-02-15 02:255.03265   
2024-02-15 02:205.01260   
2024-02-15 02:155.02262   
2024-02-15 02:105.02262   
2024-02-15 02:055.02262   
2024-02-15 02:005.01260   
2024-02-15 01:555.01260   
2024-02-15 01:505.01260   
2024-02-15 01:455.01260   
2024-02-15 01:405.01260   
2024-02-15 01:355.01260   
2024-02-15 01:305.01260   
2024-02-15 01:255.01260   
2024-02-15 01:205.01260   
2024-02-15 01:154.99255   
2024-02-15 01:105.01260   
2024-02-15 01:055.01260   
2024-02-15 01:005.00257   
2024-02-15 00:554.99255   
2024-02-15 00:504.98252   
2024-02-15 00:454.98252   
2024-02-15 00:404.97250   
2024-02-15 00:354.97250   
2024-02-15 00:304.96247   
2024-02-15 00:254.97250   
2024-02-15 00:204.95245   
2024-02-15 00:154.95245   
2024-02-15 00:104.95245   
2024-02-15 00:054.95245   
2024-02-15 00:004.95245   
2024-02-14 23:554.95245   
2024-02-14 23:504.95245   
2024-02-14 23:454.95245   
2024-02-14 23:404.94243   
2024-02-14 23:354.94243   
2024-02-14 23:304.94243   
2024-02-14 23:254.93240   
2024-02-14 23:204.94243   
2024-02-14 23:154.93240   
2024-02-14 23:104.93240   
2024-02-14 23:054.93240   
2024-02-14 23:004.93240   
2024-02-14 22:554.93240   
2024-02-14 22:504.92238   
2024-02-14 22:454.93240   
2024-02-14 22:404.93240   
2024-02-14 22:354.93240   
2024-02-14 22:304.92238   
2024-02-14 22:254.92238   
2024-02-14 22:204.92238   
2024-02-14 22:154.92238   
2024-02-14 22:104.92238   
2024-02-14 22:054.92238   
2024-02-14 22:004.92238   
2024-02-14 21:554.91236   
2024-02-14 21:504.92238   
2024-02-14 21:454.91236   
2024-02-14 21:404.92238   
2024-02-14 21:354.91236   
2024-02-14 21:304.92238   
2024-02-14 21:254.91236   
2024-02-14 21:204.91236   
2024-02-14 21:154.91236   
2024-02-14 21:104.91236   
2024-02-14 18:354.89231   
2024-02-14 18:304.89231   
2024-02-14 18:254.89231   
2024-02-14 18:204.89231   
2024-02-14 18:154.89231   
2024-02-14 18:104.89231   
2024-02-14 18:054.89231   
2024-02-14 18:004.89231   
2024-02-14 17:554.89231   
2024-02-14 17:504.89231   
2024-02-14 17:454.89231   
2024-02-14 17:404.89231   
2024-02-14 17:354.89231   
2024-02-14 17:304.89231   
2024-02-14 17:254.89231   
2024-02-14 17:204.88229   
2024-02-14 17:154.89231   
2024-02-14 17:104.88229   
2024-02-14 17:054.89231   
2024-02-14 17:004.88229   
2024-02-14 16:554.88229   
2024-02-14 16:504.88229   
2024-02-14 16:454.88229   
2024-02-14 16:404.88229   
2024-02-14 16:354.88229   
2024-02-14 16:304.88229   
2024-02-14 16:254.88229   
2024-02-14 16:204.88229   
2024-02-14 16:154.88229   
2024-02-14 16:104.88229   
2024-02-14 16:054.89231   
2024-02-14 16:004.87226